| time (UTC) | temp F | wind direction | speed MPH | gust MPH | rain 1hr in | rain 24hr in | rain mn in | humidity % | barometer mb |
| 20260831115515 | 76 | 202 | 7.0 | 11.0 | 0.00 | 0.11 | 0.11 | 62 | 1011.4 |
| 20260831115335 | 76 | 180 | 7.0 | 11.0 | 0.00 | 0.11 | 0.11 | 61 | 1011.4 |
| 20260831115135 | 76 | 202 | 7.0 | 10.0 | 0.00 | 0.11 | 0.11 | 63 | 1011.4 |
| 20260831114949 | 76 | 180 | 7.0 | 10.0 | 0.00 | 0.11 | 0.11 | 63 | 1011.4 |
| 20260831114805 | 76 | 202 | 7.0 | 10.0 | 0.00 | 0.11 | 0.11 | 62 | 1011.4 |
| 20260831114713 | 76 | 270 | 7.0 | 10.0 | 0.00 | 0.11 | 0.11 | 63 | 1011.4 |
| 20260831114625 | 76 | 202 | 7.0 | 10.0 | 0.00 | 0.11 | 0.11 | 63 | 1011.4 |
| 20260831114435 | 75 | 292 | 7.0 | 10.0 | 0.00 | 0.11 | 0.11 | 63 | 1011.3 |
| 20260831114245 | 75 | 225 | 7.0 | 10.0 | 0.00 | 0.11 | 0.11 | 63 | 1011.4 |
| 20260831114105 | 75 | 180 | 7.0 | 11.0 | 0.00 | 0.11 | 0.11 | 64 | 1011.4 |
| 20260831113910 | 75 | 225 | 7.0 | 11.0 | 0.00 | 0.11 | 0.11 | 64 | 1011.5 |
| 20260831113720 | 75 | 112 | 6.0 | 10.0 | 0.00 | 0.11 | 0.11 | 64 | 1011.4 |
| 20260831113539 | 75 | 248 | 6.0 | 10.0 | 0.00 | 0.11 | 0.11 | 63 | 1011.4 |
| 20260831113355 | 75 | 248 | 6.0 | 10.0 | 0.00 | 0.11 | 0.11 | 65 | 1011.5 |
| 20260831113205 | 75 | 202 | 6.0 | 10.0 | 0.00 | 0.11 | 0.11 | 65 | 1011.4 |
| 20260831113023 | 75 | 180 | 6.0 | 10.0 | 0.00 | 0.11 | 0.11 | 66 | 1011.5 |
| 20260831112910 | 75 | 202 | 6.0 | 11.0 | 0.00 | 0.11 | 0.11 | 66 | 1011.4 |
| 20260831112839 | 75 | 180 | 6.0 | 11.0 | 0.00 | 0.11 | 0.11 | 66 | 1011.4 |
| 20260831112652 | 75 | 202 | 6.0 | 11.0 | 0.00 | 0.11 | 0.11 | 66 | 1011.4 |
| 20260831112504 | 75 | 202 | 7.0 | 11.0 | 0.00 | 0.11 | 0.11 | 65 | 1011.5 |
| 20260831112310 | 75 | 180 | 7.0 | 10.0 | 0.00 | 0.11 | 0.11 | 66 | 1011.4 |
| 20260831112120 | 75 | 270 | 6.0 | 10.0 | 0.00 | 0.11 | 0.11 | 66 | 1011.5 |
| 20260831111920 | 75 | 202 | 6.0 | 10.0 | 0.00 | 0.11 | 0.11 | 67 | 1011.4 |
| 20260831111732 | 75 | 270 | 6.0 | 11.0 | 0.00 | 0.11 | 0.11 | 67 | 1011.5 |
| 20260831111535 | 75 | 225 | 6.0 | 11.0 | 0.00 | 0.11 | 0.11 | 67 | 1011.5 |
| 20260831111339 | 75 | 225 | 6.0 | 11.0 | 0.00 | 0.11 | 0.11 | 67 | 1011.5 |
| 20260831111303 | 75 | 248 | 6.0 | 11.0 | 0.00 | 0.11 | 0.11 | 66 | 1011.5 |
| 20260831111139 | 75 | 202 | 6.0 | 8.0 | 0.00 | 0.11 | 0.11 | 67 | 1011.5 |
| 20260831110945 | 75 | 270 | 6.0 | 9.0 | 0.00 | 0.11 | 0.11 | 67 | 1011.5 |
| 20260831110805 | 75 | 68 | 6.0 | 9.0 | 0.00 | 0.11 | 0.11 | 67 | 1011.5 |
| 20260831110608 | 74 | 180 | 6.0 | 9.0 | 0.00 | 0.11 | 0.11 | 66 | 1011.6 |
| 20260831110425 | 74 | 248 | 6.0 | 10.0 | 0.00 | 0.11 | 0.11 | 67 | 1011.6 |
| 20260831110239 | 74 | 248 | 6.0 | 10.0 | 0.00 | 0.11 | 0.11 | 67 | 1011.6 |
| 20260831110042 | 74 | 202 | 6.0 | 10.0 | 0.00 | 0.11 | 0.11 | 67 | 1011.6 |
| 20260831105905 | 74 | 338 | 6.0 | 9.0 | 0.00 | 0.11 | 0.11 | 66 | 1011.7 |
| 20260831105729 | 74 | 202 | 6.0 | 9.0 | 0.00 | 0.11 | 0.11 | 68 | 1011.7 |
| 20260831105535 | 73 | 292 | 6.0 | 9.0 | 0.00 | 0.11 | 0.11 | 70 | 1011.7 |
| 20260831105517 | 73 | 248 | 6.0 | 9.0 | 0.00 | 0.11 | 0.11 | 70 | 1011.7 |
| 20260831105350 | 73 | 202 | 6.0 | 9.0 | 0.00 | 0.11 | 0.11 | 70 | 1011.7 |
| 20260831105205 | 73 | 202 | 6.0 | 10.0 | 0.00 | 0.11 | 0.11 | 69 | 1011.7 |
| 20260831105015 | 73 | 248 | 7.0 | 10.0 | 0.00 | 0.11 | 0.11 | 69 | 1011.7 |
| 20260831104829 | 73 | 292 | 6.0 | 10.0 | 0.00 | 0.11 | 0.11 | 69 | 1011.6 |
| 20260831104635 | 72 | 180 | 7.0 | 10.0 | 0.00 | 0.11 | 0.11 | 70 | 1011.7 |
| 20260831104434 | 72 | 225 | 7.0 | 12.0 | 0.00 | 0.11 | 0.11 | 72 | 1011.6 |
| 20260831104240 | 72 | 270 | 8.0 | 12.0 | 0.00 | 0.11 | 0.11 | 71 | 1011.7 |
| 20260831104058 | 72 | 248 | 8.0 | 11.0 | 0.00 | 0.11 | 0.11 | 71 | 1011.7 |
| 20260831103920 | 72 | 202 | 8.0 | 11.0 | 0.00 | 0.11 | 0.11 | 71 | 1011.7 |
| 20260831103739 | 72 | 225 | 7.0 | 11.0 | 0.00 | 0.11 | 0.11 | 71 | 1011.6 |
| 20260831103642 | 72 | 202 | 7.0 | 11.0 | 0.00 | 0.11 | 0.11 | 71 | 1011.7 |
| 20260831103539 | 72 | 180 | 7.0 | 11.0 | 0.00 | 0.11 | 0.11 | 70 | 1011.6 |
| 20260831103350 | 73 | 202 | 6.0 | 11.0 | 0.00 | 0.11 | 0.11 | 70 | 1011.6 |
| 20260831103201 | 73 | 158 | 6.0 | 11.0 | 0.00 | 0.11 | 0.11 | 71 | 1011.7 |
| 20260831103020 | 72 | 180 | 7.0 | 11.0 | 0.00 | 0.11 | 0.11 | 71 | 1011.6 |
| 20260831102845 | 72 | 292 | 6.0 | 11.0 | 0.00 | 0.11 | 0.11 | 71 | 1011.8 |
| 20260831102705 | 72 | 270 | 6.0 | 10.0 | 0.00 | 0.11 | 0.11 | 70 | 1011.7 |
| 20260831102522 | 72 | 202 | 6.0 | 11.0 | 0.00 | 0.11 | 0.11 | 70 | 1011.7 |
| 20260831102335 | 72 | 248 | 6.0 | 11.0 | 0.00 | 0.11 | 0.11 | 70 | 1011.7 |
| 20260831102140 | 72 | 180 | 6.0 | 9.0 | 0.00 | 0.11 | 0.11 | 69 | 1011.7 |
| 20260831101955 | 72 | 180 | 6.0 | 9.0 | 0.00 | 0.11 | 0.11 | 71 | 1011.7 |
| 20260831101937 | 72 | 180 | 6.0 | 11.0 | 0.00 | 0.11 | 0.11 | 70 | 1011.7 |
| 20260831101802 | 72 | 270 | 7.0 | 11.0 | 0.00 | 0.11 | 0.11 | 71 | 1011.7 |
| 20260831101625 | 72 | 225 | 7.0 | 11.0 | 0.00 | 0.11 | 0.11 | 70 | 1011.8 |
| 20260831101430 | 72 | 180 | 6.0 | 13.0 | 0.00 | 0.11 | 0.11 | 71 | 1011.8 |
| 20260831101245 | 72 | 202 | 6.0 | 13.0 | 0.00 | 0.11 | 0.11 | 71 | 1011.8 |
| 20260831101053 | 72 | 225 | 7.0 | 13.0 | 0.00 | 0.11 | 0.11 | 71 | 1011.7 |
| 20260831100905 | 71 | 202 | 6.0 | 11.0 | 0.00 | 0.11 | 0.11 | 72 | 1011.7 |
| 20260831100705 | 71 | 225 | 6.0 | 11.0 | 0.00 | 0.11 | 0.11 | 73 | 1011.8 |
| 20260831100521 | 71 | 225 | 6.0 | 9.0 | 0.00 | 0.11 | 0.11 | 72 | 1011.8 |
| 20260831100427 | 71 | 158 | 6.0 | 9.0 | 0.00 | 0.11 | 0.11 | 74 | 1011.8 |
| 20260831100332 | 71 | 158 | 6.0 | 9.0 | 0.00 | 0.11 | 0.11 | 74 | 1011.8 |
| 20260831100135 | 71 | 180 | 6.0 | 9.0 | 0.00 | 0.11 | 0.11 | 74 | 1011.8 |
| 20260831100000 | 71 | 202 | 6.0 | 9.0 | 0.00 | 0.11 | 0.11 | 75 | 1011.8 |
| 20260831095815 | 70 | 202 | 6.0 | 9.0 | 0.00 | 0.11 | 0.11 | 76 | 1011.8 |
| 20260831095639 | 70 | 270 | 6.0 | 10.0 | 0.00 | 0.11 | 0.11 | 78 | 1011.9 |
| 20260831095451 | 70 | 225 | 6.0 | 10.0 | 0.00 | 0.11 | 0.11 | 77 | 1011.9 |
| 20260831095309 | 70 | 225 | 6.0 | 10.0 | 0.00 | 0.11 | 0.11 | 77 | 1012.0 |
| 20260831095125 | 70 | 248 | 6.0 | 10.0 | 0.00 | 0.11 | 0.11 | 76 | 1012.0 |
| 20260831094934 | 70 | 225 | 6.0 | 9.0 | 0.00 | 0.11 | 0.11 | 77 | 1011.9 |
| 20260831094746 | 70 | 180 | 6.0 | 9.0 | 0.00 | 0.11 | 0.11 | 78 | 1011.9 |
| 20260831094635 | 70 | 202 | 6.0 | 9.0 | 0.00 | 0.11 | 0.11 | 78 | 1012.0 |
| 20260831094555 | 70 | 225 | 6.0 | 9.0 | 0.00 | 0.11 | 0.11 | 77 | 1012.0 |
| 20260831094410 | 70 | 225 | 5.0 | 9.0 | 0.00 | 0.11 | 0.11 | 77 | 1012.0 |
| 20260831094215 | 69 | 248 | 5.0 | 8.0 | 0.00 | 0.11 | 0.11 | 78 | 1012.0 |
| 20260831094018 | 69 | 202 | 5.0 | 10.0 | 0.00 | 0.11 | 0.11 | 79 | 1012.0 |
| 20260831093825 | 69 | 225 | 5.0 | 10.0 | 0.00 | 0.11 | 0.11 | 79 | 1012.0 |
| 20260831093645 | 69 | 202 | 4.0 | 10.0 | 0.00 | 0.11 | 0.11 | 80 | 1012.0 |
| 20260831093444 | 69 | 202 | 5.0 | 8.0 | 0.00 | 0.11 | 0.11 | 79 | 1012.1 |
| 20260831093251 | 69 | 248 | 5.0 | 6.0 | 0.00 | 0.11 | 0.11 | 80 | 1012.1 |
| 20260831093115 | 68 | 202 | 5.0 | 6.0 | 0.00 | 0.11 | 0.11 | 81 | 1012.0 |
| 20260831092925 | 68 | 202 | 5.0 | 11.0 | 0.00 | 0.11 | 0.11 | 82 | 1012.1 |
| 20260831092750 | 68 | 202 | 5.0 | 11.0 | 0.00 | 0.11 | 0.11 | 81 | 1012.1 |
| 20260831092729 | 68 | 158 | 5.0 | 11.0 | 0.00 | 0.11 | 0.11 | 81 | 1012.1 |
| 20260831092539 | 68 | 180 | 5.0 | 11.0 | 0.00 | 0.11 | 0.11 | 82 | 1012.1 |
| 20260831092355 | 68 | 202 | 5.0 | 8.0 | 0.00 | 0.11 | 0.11 | 83 | 1012.1 |
| 20260831092155 | 68 | 202 | 4.0 | 8.0 | 0.00 | 0.11 | 0.11 | 83 | 1012.2 |
| 20260831092005 | 67 | 180 | 4.0 | 8.0 | 0.00 | 0.11 | 0.11 | 82 | 1012.2 |
| 20260831091821 | 67 | 202 | 4.0 | 6.0 | 0.00 | 0.11 | 0.11 | 82 | 1012.3 |
| 20260831091642 | 67 | 225 | 4.0 | 6.0 | 0.00 | 0.11 | 0.11 | 83 | 1012.2 |
| 20260831091455 | 67 | 158 | 4.0 | 6.0 | 0.00 | 0.11 | 0.11 | 84 | 1012.4 |
| 20260831091317 | 67 | 202 | 4.0 | 6.0 | 0.00 | 0.11 | 0.11 | 84 | 1012.3 |
| 20260831091133 | 66 | 202 | 4.0 | 5.0 | 0.00 | 0.11 | 0.11 | 84 | 1012.4 |
| 20260831091039 | 66 | 202 | 4.0 | 5.0 | 0.00 | 0.11 | 0.11 | 85 | 1012.4 |
| 20260831090950 | 66 | 248 | 4.0 | 5.0 | 0.00 | 0.11 | 0.11 | 85 | 1012.4 |
| 20260831090755 | 66 | 202 | 4.0 | 8.0 | 0.00 | 0.11 | 0.11 | 86 | 1012.4 |
| 20260831090605 | 65 | 202 | 5.0 | 8.0 | 0.00 | 0.11 | 0.11 | 87 | 1012.4 |
| 20260831090410 | 65 | 202 | 4.0 | 8.0 | 0.00 | 0.11 | 0.11 | 87 | 1012.4 |
| 20260831090235 | 65 | 202 | 4.0 | 6.0 | 0.00 | 0.11 | 0.11 | 87 | 1012.4 |
| 20260831090054 | 65 | 180 | 5.0 | 7.0 | 0.00 | 0.11 | 0.11 | 88 | 1012.4 |
| 20260831085910 | 65 | 202 | 5.0 | 7.0 | 0.00 | 0.11 | 0.11 | 88 | 1012.4 |
| 20260831085712 | 64 | 202 | 4.0 | 7.0 | 0.00 | 0.11 | 0.11 | 89 | 1012.5 |
| 20260831085519 | 64 | 180 | 4.0 | 7.0 | 0.00 | 0.11 | 0.11 | 89 | 1012.4 |
| 20260831085332 | 64 | 270 | 4.0 | 7.0 | 0.00 | 0.11 | 0.11 | 89 | 1012.5 |
| 20260831085155 | 64 | 158 | 4.0 | 7.0 | 0.00 | 0.11 | 0.11 | 90 | 1012.5 |
| 20260831085006 | 64 | 180 | 4.0 | 8.0 | 0.00 | 0.11 | 0.11 | 91 | 1012.5 |
| 20260831084808 | 64 | 180 | 4.0 | 8.0 | 0.00 | 0.11 | 0.11 | 91 | 1012.5 |
| 20260831084610 | 63 | 180 | 4.0 | 8.0 | 0.00 | 0.11 | 0.11 | 91 | 1012.5 |
| 20260831084426 | 63 | 180 | 4.0 | 7.0 | 0.00 | 0.11 | 0.11 | 91 | 1012.5 |
| 20260831084241 | 63 | 180 | 4.0 | 6.0 | 0.00 | 0.11 | 0.11 | 92 | 1012.6 |
| 20260831084055 | 63 | 180 | 4.0 | 6.0 | 0.00 | 0.11 | 0.11 | 92 | 1012.6 |
| 20260831083913 | 63 | 180 | 4.0 | 8.0 | 0.00 | 0.11 | 0.11 | 92 | 1012.5 |
| 20260831083802 | 63 | 180 | 4.0 | 8.0 | 0.00 | 0.11 | 0.11 | 92 | 1012.6 |
| 20260831083715 | 63 | 135 | 3.0 | 8.0 | 0.02 | 0.11 | 0.11 | 92 | 1012.5 |
| 20260831083536 | 63 | 202 | 3.0 | 8.0 | 0.02 | 0.11 | 0.11 | 92 | 1012.5 |
| 20260831083345 | 63 | 202 | 3.0 | 5.0 | 0.02 | 0.11 | 0.11 | 92 | 1012.5 |
| 20260831083153 | 63 | 202 | 3.0 | 5.0 | 0.02 | 0.11 | 0.11 | 92 | 1012.5 |
| 20260831083008 | 63 | 180 | 3.0 | 5.0 | 0.02 | 0.11 | 0.11 | 92 | 1012.5 |
| 20260831082826 | 63 | 248 | 3.0 | 5.0 | 0.02 | 0.11 | 0.11 | 92 | 1012.5 |
| 20260831082639 | 62 | 202 | 3.0 | 5.0 | 0.03 | 0.11 | 0.11 | 92 | 1012.5 |
| 20260831082446 | 62 | 180 | 3.0 | 5.0 | 0.03 | 0.11 | 0.11 | 92 | 1012.5 |
| 20260831082255 | 62 | 292 | 4.0 | 5.0 | 0.03 | 0.11 | 0.11 | 92 | 1012.5 |
| 20260831082105 | 62 | 180 | 3.0 | 5.0 | 0.05 | 0.11 | 0.11 | 92 | 1012.4 |
| 20260831081946 | 62 | 202 | 4.0 | 8.0 | 0.05 | 0.11 | 0.11 | 93 | 1012.4 |
| 20260831081910 | 62 | 202 | 4.0 | 8.0 | 0.05 | 0.11 | 0.11 | 93 | 1012.4 |
| 20260831081731 | 62 | 270 | 4.0 | 8.0 | 0.05 | 0.11 | 0.11 | 93 | 1012.4 |
| 20260831081539 | 62 | 270 | 4.0 | 8.0 | 0.05 | 0.11 | 0.11 | 92 | 1012.4 |
| 20260831081350 | 62 | 225 | 4.0 | 7.0 | 0.05 | 0.11 | 0.11 | 93 | 1012.4 |
| 20260831081155 | 62 | 180 | 4.0 | 7.0 | 0.05 | 0.11 | 0.11 | 93 | 1012.4 |
| 20260831081000 | 62 | 180 | 3.0 | 7.0 | 0.06 | 0.11 | 0.11 | 93 | 1012.4 |
| 20260831080805 | 62 | 202 | 2.0 | 5.0 | 0.06 | 0.11 | 0.11 | 93 | 1012.4 |
| 20260831080613 | 62 | 248 | 2.0 | 5.0 | 0.06 | 0.11 | 0.11 | 93 | 1012.4 |
| 20260831080434 | 62 | 202 | 2.0 | 5.0 | 0.08 | 0.11 | 0.11 | 93 | 1012.5 |
| 20260831080255 | 62 | 248 | 2.0 | 5.0 | 0.08 | 0.11 | 0.11 | 93 | 1012.3 |
| 20260831080123 | 62 | 202 | 1.0 | 4.0 | 0.08 | 0.11 | 0.11 | 94 | 1012.3 |
| 20260831080110 | 62 | 202 | 1.0 | 4.0 | 0.08 | 0.11 | 0.11 | 94 | 1012.3 |
| 20260831075915 | 61 | 202 | 2.0 | 5.0 | 0.08 | 0.11 | 0.11 | 93 | 1012.3 |
| 20260831075715 | 61 | 202 | 2.0 | 5.0 | 0.08 | 0.11 | 0.11 | 93 | 1012.3 |
| 20260831075520 | 61 | 202 | 2.0 | 5.0 | 0.08 | 0.11 | 0.11 | 93 | 1012.3 |
| 20260831075335 | 61 | 248 | 2.0 | 5.0 | 0.09 | 0.11 | 0.11 | 93 | 1012.2 |
| 20260831075140 | 61 | 135 | 2.0 | 5.0 | 0.09 | 0.11 | 0.11 | 93 | 1012.1 |
| 20260831075002 | 61 | 202 | 2.0 | 5.0 | 0.09 | 0.11 | 0.11 | 93 | 1012.1 |
| 20260831074819 | 61 | 202 | 2.0 | 5.0 | 0.11 | 0.11 | 0.11 | 93 | 1012.2 |
| 20260831074619 | 61 | 202 | 1.0 | 5.0 | 0.11 | 0.11 | 0.11 | 93 | 1012.3 |
| 20260831074532 | 61 | 202 | 1.0 | 5.0 | 0.11 | 0.11 | 0.11 | 93 | 1012.3 |
| 20260831074425 | 61 | 202 | 1.0 | 5.0 | 0.11 | 0.11 | 0.11 | 93 | 1012.2 |
| 20260831074225 | 61 | 292 | 1.0 | 5.0 | 0.11 | 0.11 | 0.11 | 93 | 1012.2 |
| 20260831074035 | 61 | 292 | 1.0 | 5.0 | 0.11 | 0.11 | 0.11 | 93 | 1012.3 |
| 20260831073839 | 61 | 292 | 0.0 | 2.0 | 0.11 | 0.11 | 0.11 | 93 | 1012.3 |
| 20260831073700 | 61 | 292 | 0.0 | 2.0 | 0.11 | 0.11 | 0.11 | 93 | 1012.3 |
| 20260831073520 | 61 | 292 | 0.0 | 2.0 | 0.11 | 0.11 | 0.11 | 93 | 1012.2 |
| 20260831073325 | 61 | 292 | 1.0 | 2.0 | 0.09 | 0.09 | 0.09 | 92 | 1012.4 |
| 20260831073145 | 61 | 292 | 1.0 | 2.0 | 0.09 | 0.09 | 0.09 | 92 | 1012.5 |
| 20260831072946 | 61 | 292 | 1.0 | 2.0 | 0.09 | 0.09 | 0.09 | 92 | 1012.4 |
| 20260831072827 | 61 | 292 | 2.0 | 5.0 | 0.09 | 0.09 | 0.09 | 92 | 1012.4 |
| 20260831072805 | 61 | 292 | 2.0 | 5.0 | 0.09 | 0.09 | 0.09 | 92 | 1012.4 |
| 20260831072615 | 61 | 292 | 3.0 | 5.0 | 0.09 | 0.09 | 0.09 | 92 | 1012.4 |
| 20260831072420 | 61 | 292 | 3.0 | 5.0 | 0.09 | 0.09 | 0.09 | 91 | 1012.6 |
| 20260831072230 | 62 | 292 | 3.0 | 5.0 | 0.08 | 0.08 | 0.08 | 91 | 1012.6 |
| 20260831072037 | 62 | 248 | 4.0 | 6.0 | 0.08 | 0.08 | 0.08 | 90 | 1012.5 |
| 20260831071850 | 62 | 202 | 3.0 | 6.0 | 0.08 | 0.08 | 0.08 | 90 | 1012.6 |
| 20260831071700 | 62 | 248 | 3.0 | 6.0 | 0.06 | 0.06 | 0.06 | 90 | 1012.6 |
| 20260831071502 | 62 | 248 | 2.0 | 5.0 | 0.06 | 0.06 | 0.06 | 90 | 1012.6 |
| 20260831071320 | 62 | 270 | 3.0 | 5.0 | 0.06 | 0.06 | 0.06 | 90 | 1012.6 |
| 20260831071135 | 62 | 270 | 3.0 | 5.0 | 0.06 | 0.06 | 0.06 | 89 | 1012.6 |
| 20260831070955 | 62 | 202 | 3.0 | 7.0 | 0.06 | 0.06 | 0.06 | 88 | 1012.5 |
| 20260831070809 | 62 | 180 | 4.0 | 7.0 | 0.06 | 0.06 | 0.06 | 88 | 1012.5 |
| 20260831070626 | 62 | 180 | 5.0 | 7.0 | 0.05 | 0.05 | 0.05 | 88 | 1012.5 |
| 20260831070434 | 62 | 202 | 5.0 | 8.0 | 0.05 | 0.05 | 0.05 | 87 | 1012.4 |
| 20260831070235 | 63 | 202 | 4.0 | 9.0 | 0.05 | 0.05 | 0.05 | 86 | 1012.2 |
| 20260831070043 | 63 | 225 | 3.0 | 9.0 | 0.03 | 0.03 | 0.03 | 86 | 1012.3 |
| 20260831065902 | 63 | 135 | 2.0 | 9.0 | 0.03 | 0.03 | 0.03 | 87 | 1012.2 |
| 20260831065715 | 63 | 180 | 1.0 | 9.0 | 0.03 | 0.03 | 0.03 | 89 | 1012.2 |
| 20260831065525 | 63 | 158 | 1.0 | 3.0 | 0.03 | 0.03 | 0.03 | 90 | 1012.0 |
| 20260831065434 | 63 | 158 | 0.0 | 2.0 | 0.03 | 0.03 | 0.03 | 90 | 1012.1 |
| 20260831065332 | 63 | 158 | 0.0 | 2.0 | 0.03 | 0.03 | 0.03 | 91 | 1012.1 |
| 20260831065140 | 63 | 158 | 0.0 | 0.0 | 0.03 | 0.03 | 0.03 | 90 | 1012.0 |
| 20260831064945 | 64 | 158 | 0.0 | 1.0 | 0.02 | 0.02 | 0.02 | 89 | 1012.0 |
| 20260831064755 | 64 | 158 | 0.0 | 2.0 | 0.02 | 0.02 | 0.02 | 89 | 1012.1 |
| 20260831064615 | 64 | 158 | 0.0 | 2.0 | 0.02 | 0.02 | 0.02 | 89 | 1012.0 |
| 20260831064426 | 64 | 158 | 0.0 | 2.0 | 0.00 | 0.00 | 0.00 | 88 | 1012.0 |
| 20260831064240 | 64 | 0 | 0.0 | 2.0 | 0.00 | 0.00 | 0.00 | 87 | 1011.9 |
| 20260831064045 | 64 | 0 | 0.0 | 0.0 | 0.00 | 0.00 | 0.00 | 86 | 1011.9 |
| 20260831063900 | 64 | 0 | 0.0 | 0.0 | 0.00 | 0.00 | 0.00 | 85 | 1012.0 |
| 20260831063701 | 64 | 0 | 0.0 | 0.0 | 0.00 | 0.00 | 0.00 | 83 | 1012.0 |
| 20260831063511 | 64 | 0 | 0.0 | 0.0 | 0.00 | 0.00 | 0.00 | 83 | 1012.0 |
| 20260831063335 | 64 | 0 | 0.0 | 0.0 | 0.00 | 0.00 | 0.00 | 82 | 1012.0 |
| 20260831063140 | 64 | 0 | 0.0 | 0.0 | 0.00 | 0.00 | 0.00 | 81 | 1012.0 |
| 20260831062941 | 64 | 0 | 0.0 | 0.0 | 0.00 | 0.00 | 0.00 | 80 | 1012.0 |
| 20260831062745 | 65 | 0 | 0.0 | 0.0 | 0.00 | 0.00 | 0.00 | 80 | 1011.9 |
| 20260831062555 | 65 | 0 | 0.0 | 0.0 | 0.00 | 0.00 | 0.00 | 80 | 1011.9 |
| 20260831062406 | 65 | 0 | 0.0 | 0.0 | 0.00 | 0.00 | 0.00 | 79 | 1011.8 |
| 20260831062215 | 65 | 0 | 0.0 | 0.0 | 0.00 | 0.00 | 0.00 | 79 | 1011.8 |
| 20260831062056 | 65 | 0 | 0.0 | 0.0 | 0.00 | 0.00 | 0.00 | 79 | 1011.9 |
| 20260831062030 | 65 | 0 | 0.0 | 0.0 | 0.00 | 0.00 | 0.00 | 79 | 1011.9 |
| 20260831061840 | 65 | 0 | 0.0 | 0.0 | 0.00 | 0.00 | 0.00 | 78 | 1011.8 |
| 20260831061655 | 65 | 0 | 0.0 | 0.0 | 0.00 | 0.00 | 0.00 | 78 | 1011.8 |
| 20260831061500 | 65 | 0 | 0.0 | 0.0 | 0.00 | 0.00 | 0.00 | 78 | 1011.8 |
| 20260831061300 | 65 | 0 | 0.0 | 1.0 | 0.00 | 0.00 | 0.00 | 79 | 1011.8 |
| 20260831061105 | 65 | 0 | 0.0 | 1.0 | 0.00 | 0.00 | 0.00 | 79 | 1011.9 |
| 20260831060925 | 65 | 158 | 0.0 | 1.0 | 0.00 | 0.00 | 0.00 | 78 | 1011.9 |
| 20260831060740 | 65 | 158 | 0.0 | 1.0 | 0.00 | 0.00 | 0.00 | 78 | 1011.9 |
| 20260831060600 | 65 | 158 | 0.0 | 2.0 | 0.00 | 0.00 | 0.00 | 77 | 1011.7 |
| 20260831060552 | 65 | 158 | 0.0 | 2.0 | 0.00 | 0.00 | 0.00 | 78 | 1011.7 |
| 20260831060414 | 65 | 158 | 0.0 | 2.0 | 0.00 | 0.00 | 0.00 | 77 | 1011.7 |
| 20260831060230 | 65 | 0 | 0.0 | 2.0 | 0.00 | 0.00 | 0.00 | 77 | 1011.7 |
| 20260831060055 | 65 | 0 | 0.0 | 0.0 | 0.00 | 0.00 | 0.00 | 78 | 1011.8 |
| 20260831055915 | 64 | 158 | 0.0 | 0.0 | 0.00 | 0.00 | 0.00 | 78 | 1011.9 |
| 20260831055723 | 64 | 158 | 0.0 | 3.0 | 0.00 | 0.00 | 0.00 | 79 | 1011.9 |
| 20260831055530 | 64 | 158 | 1.0 | 3.0 | 0.00 | 0.00 | 0.00 | 78 | 1011.9 |
| 20260831055350 | 64 | 158 | 1.0 | 3.0 | 0.00 | 0.00 | 0.00 | 78 | 1011.9 |
| 20260831055209 | 64 | 158 | 2.0 | 3.0 | 0.00 | 0.00 | 0.00 | 78 | 1012.0 |
| 20260831055020 | 64 | 158 | 2.0 | 5.0 | 0.00 | 0.00 | 0.00 | 78 | 1011.9 |
| 20260831054825 | 64 | 158 | 1.0 | 5.0 | 0.00 | 0.00 | 0.00 | 78 | 1012.0 |
| 20260831054725 | 64 | 158 | 1.0 | 5.0 | 0.00 | 0.00 | 0.00 | 78 | 1011.9 |
| 20260831054635 | 63 | 202 | 1.0 | 5.0 | 0.00 | 0.00 | 0.00 | 79 | 1012.0 |
| 20260831054445 | 63 | 202 | 1.0 | 5.0 | 0.00 | 0.00 | 0.00 | 79 | 1011.9 |
| 20260831054305 | 63 | 158 | 0.0 | 3.0 | 0.00 | 0.00 | 0.00 | 81 | 1011.9 |
| 20260831054115 | 63 | 0 | 0.0 | 0.0 | 0.00 | 0.00 | 0.00 | 82 | 1011.9 |
| 20260831053940 | 63 | 0 | 0.0 | 0.0 | 0.00 | 0.00 | 0.00 | 82 | 1011.9 |
| 20260831053759 | 63 | 0 | 0.0 | 0.0 | 0.00 | 0.00 | 0.00 | 82 | 1011.9 |
| 20260831053620 | 63 | 0 | 0.0 | 0.0 | 0.00 | 0.00 | 0.00 | 82 | 1011.9 |
| 20260831053420 | 63 | 0 | 0.0 | 0.0 | 0.00 | 0.00 | 0.00 | 82 | 1011.9 |
| 20260831053231 | 63 | 0 | 0.0 | 0.0 | 0.00 | 0.00 | 0.00 | 82 | 1011.9 |
| 20260831053039 | 63 | 0 | 0.0 | 0.0 | 0.00 | 0.00 | 0.00 | 82 | 1011.8 |
| 20260831052855 | 63 | 0 | 0.0 | 0.0 | 0.00 | 0.00 | 0.00 | 82 | 1011.8 |
| 20260831052835 | 63 | 0 | 0.0 | 0.0 | 0.00 | 0.00 | 0.00 | 81 | 1011.8 |
| 20260831052702 | 63 | 0 | 0.0 | 0.0 | 0.00 | 0.00 | 0.00 | 81 | 1011.8 |
| 20260831052510 | 63 | 0 | 0.0 | 0.0 | 0.00 | 0.00 | 0.00 | 82 | 1011.9 |
| 20260831052326 | 63 | 0 | 0.0 | 0.0 | 0.00 | 0.00 | 0.00 | 81 | 1011.9 |
| 20260831052146 | 63 | 0 | 0.0 | 0.0 | 0.00 | 0.00 | 0.00 | 81 | 1011.9 |
| 20260831052011 | 63 | 0 | 0.0 | 0.0 | 0.00 | 0.00 | 0.00 | 81 | 1011.9 |
| 20260831051815 | 63 | 90 | 0.0 | 1.0 | 0.00 | 0.00 | 0.00 | 81 | 1012.0 |
| 20260831051620 | 63 | 90 | 0.0 | 1.0 | 0.00 | 0.00 | 0.00 | 80 | 1012.0 |
| 20260831051420 | 63 | 90 | 1.0 | 2.0 | 0.00 | 0.00 | 0.00 | 81 | 1012.1 |
| 20260831051226 | 63 | 90 | 1.0 | 2.0 | 0.00 | 0.00 | 0.00 | 81 | 1012.1 |
| 20260831051128 | 63 | 90 | 1.0 | 3.0 | 0.00 | 0.00 | 0.00 | 81 | 1012.1 |
| 20260831051047 | 63 | 90 | 1.0 | 3.0 | 0.00 | 0.00 | 0.00 | 82 | 1012.0 |
| 20260831050850 | 63 | 90 | 2.0 | 5.0 | 0.00 | 0.00 | 0.00 | 81 | 1012.0 |
| 20260831050702 | 63 | 90 | 1.0 | 5.0 | 0.00 | 0.00 | 0.00 | 81 | 1012.0 |
| 20260831050525 | 63 | 90 | 1.0 | 5.0 | 0.00 | 0.00 | 0.00 | 82 | 1012.0 |
| 20260831050335 | 63 | 68 | 1.0 | 3.0 | 0.00 | 0.00 | 0.00 | 82 | 1012.0 |
| 20260831050155 | 62 | 68 | 1.0 | 3.0 | 0.00 | 0.00 | 0.00 | 82 | 1012.0 |
| 20260831050004 | 62 | 68 | 2.0 | 3.0 | 0.00 | 0.00 | 0.00 | 83 | 1012.0 |
| 20260831045815 | 62 | 68 | 2.0 | 3.0 | 0.00 | 0.00 | 0.00 | 83 | 1011.9 |
| 20260831045613 | 62 | 68 | 2.0 | 3.0 | 0.00 | 0.00 | 0.00 | 83 | 1012.0 |
| 20260831045430 | 62 | 68 | 1.0 | 3.0 | 0.00 | 0.00 | 0.00 | 83 | 1011.9 |
| 20260831045241 | 62 | 68 | 1.0 | 3.0 | 0.00 | 0.00 | 0.00 | 83 | 1011.9 |
| 20260831045055 | 62 | 68 | 1.0 | 3.0 | 0.00 | 0.00 | 0.00 | 84 | 1011.9 |
| 20260831044852 | 62 | 68 | 1.0 | 3.0 | 0.00 | 0.00 | 0.00 | 84 | 1012.0 |
| 20260831044704 | 62 | 68 | 1.0 | 3.0 | 0.00 | 0.00 | 0.00 | 84 | 1012.1 |
| 20260831044518 | 62 | 68 | 0.0 | 2.0 | 0.00 | 0.00 | 0.00 | 85 | 1012.0 |
| 20260831044340 | 62 | 68 | 0.0 | 2.0 | 0.00 | 0.00 | 0.00 | 85 | 1012.2 |
| 20260831044205 | 62 | 68 | 1.0 | 2.0 | 0.00 | 0.00 | 0.00 | 85 | 1012.2 |
| 20260831044010 | 62 | 68 | 1.0 | 2.0 | 0.00 | 0.00 | 0.00 | 85 | 1012.1 |
| 20260831043820 | 62 | 68 | 1.0 | 3.0 | 0.00 | 0.00 | 0.00 | 85 | 1012.1 |
| 20260831043640 | 62 | 68 | 1.0 | 3.0 | 0.00 | 0.00 | 0.00 | 85 | 1012.0 |
| 20260831043459 | 62 | 68 | 2.0 | 3.0 | 0.00 | 0.00 | 0.00 | 86 | 1012.0 |
| 20260831043413 | 61 | 68 | 2.0 | 3.0 | 0.00 | 0.00 | 0.00 | 86 | 1012.0 |
| 20260831043315 | 61 | 68 | 2.0 | 3.0 | 0.00 | 0.00 | 0.00 | 86 | 1012.0 |
| 20260831043125 | 61 | 68 | 1.0 | 3.0 | 0.00 | 0.00 | 0.00 | 86 | 1012.2 |
| 20260831042923 | 61 | 68 | 1.0 | 3.0 | 0.00 | 0.00 | 0.00 | 85 | 1012.2 |
| 20260831042740 | 61 | 68 | 0.0 | 2.0 | 0.00 | 0.00 | 0.00 | 86 | 1012.1 |
| 20260831042605 | 61 | 0 | 0.0 | 2.0 | 0.00 | 0.00 | 0.00 | 87 | 1012.1 |
| 20260831042425 | 61 | 0 | 0.0 | 0.0 | 0.00 | 0.00 | 0.00 | 88 | 1012.1 |
| 20260831042245 | 61 | 0 | 0.0 | 0.0 | 0.00 | 0.00 | 0.00 | 87 | 1011.9 |
| 20260831042103 | 61 | 68 | 0.0 | 0.0 | 0.00 | 0.00 | 0.00 | 88 | 1012.0 |
| 20260831041910 | 61 | 68 | 0.0 | 2.0 | 0.00 | 0.00 | 0.00 | 87 | 1012.0 |
| 20260831041725 | 61 | 68 | 0.0 | 2.0 | 0.00 | 0.00 | 0.00 | 87 | 1011.9 |
| 20260831041545 | 61 | 68 | 0.0 | 2.0 | 0.00 | 0.00 | 0.00 | 87 | 1011.8 |
| 20260831041355 | 61 | 68 | 0.0 | 1.0 | 0.00 | 0.00 | 0.00 | 87 | 1011.9 |
| 20260831041215 | 61 | 0 | 0.0 | 0.0 | 0.00 | 0.00 | 0.00 | 88 | 1011.9 |
| 20260831041035 | 62 | 0 | 0.0 | 0.0 | 0.00 | 0.00 | 0.00 | 87 | 1012.1 |
| 20260831040855 | 62 | 0 | 0.0 | 0.0 | 0.00 | 0.00 | 0.00 | 87 | 1012.0 |
| 20260831040715 | 62 | 0 | 0.0 | 0.0 | 0.00 | 0.00 | 0.00 | 87 | 1012.0 |
| 20260831040530 | 62 | 68 | 0.0 | 0.0 | 0.00 | 0.00 | 0.00 | 87 | 1012.0 |
| 20260831040330 | 62 | 68 | 0.0 | 0.0 | 0.00 | 0.00 | 0.00 | 87 | 1012.0 |
| 20260831040150 | 62 | 68 | 1.0 | 1.0 | 0.00 | 0.00 | 0.00 | 87 | 1012.1 |
| 20260831035931 | 62 | 68 | 1.0 | 2.0 | 0.00 | 0.00 | 0.00 | 87 | 1012.0 |
| 20260831035749 | 62 | 68 | 2.0 | 3.0 | 0.00 | 0.00 | 0.00 | 87 | 1012.1 |
| 20260831035559 | 61 | 68 | 1.0 | 5.0 | 0.00 | 0.00 | 0.00 | 87 | 1012.2 |
| 20260831035410 | 61 | 68 | 1.0 | 5.0 | 0.00 | 0.00 | 0.00 | 87 | 1012.1 |
| 20260831035215 | 61 | 68 | 1.0 | 5.0 | 0.00 | 0.00 | 0.00 | 87 | 1012.1 |
| 20260831035035 | 61 | 248 | 0.0 | 3.0 | 0.00 | 0.00 | 0.00 | 87 | 1012.2 |
| 20260831034835 | 61 | 0 | 0.0 | 2.0 | 0.00 | 0.00 | 0.00 | 87 | 1012.2 |
| 20260831034645 | 61 | 0 | 0.0 | 0.0 | 0.00 | 0.00 | 0.00 | 88 | 1012.4 |
| 20260831034523 | 61 | 248 | 0.0 | 0.0 | 0.00 | 0.00 | 0.00 | 88 | 1012.3 |
| 20260831034305 | 61 | 248 | 0.0 | 0.0 | 0.00 | 0.00 | 0.00 | 88 | 1012.3 |
| 20260831034113 | 61 | 248 | 0.0 | 2.0 | 0.00 | 0.00 | 0.00 | 89 | 1012.3 |
| 20260831034058 | 61 | 248 | 0.0 | 2.0 | 0.00 | 0.00 | 0.00 | 88 | 1012.3 |
| 20260831033925 | 61 | 248 | 0.0 | 2.0 | 0.00 | 0.00 | 0.00 | 89 | 1012.2 |
| 20260831033745 | 61 | 0 | 0.0 | 2.0 | 0.00 | 0.00 | 0.00 | 89 | 1012.3 |
| 20260831033554 | 61 | 0 | 0.0 | 0.0 | 0.00 | 0.00 | 0.00 | 89 | 1012.5 |
| 20260831033355 | 61 | 0 | 0.0 | 0.0 | 0.00 | 0.00 | 0.00 | 89 | 1012.5 |
| 20260831033155 | 61 | 0 | 0.0 | 0.0 | 0.00 | 0.00 | 0.00 | 89 | 1012.5 |
| 20260831033009 | 61 | 0 | 0.0 | 0.0 | 0.00 | 0.00 | 0.00 | 89 | 1012.5 |
| 20260831032805 | 61 | 0 | 0.0 | 0.0 | 0.00 | 0.00 | 0.00 | 89 | 1012.6 |
| 20260831032615 | 61 | 0 | 0.0 | 0.0 | 0.00 | 0.00 | 0.00 | 88 | 1012.6 |
| 20260831032445 | 61 | 0 | 0.0 | 0.0 | 0.00 | 0.00 | 0.00 | 88 | 1012.6 |
| 20260831032420 | 61 | 0 | 0.0 | 0.0 | 0.00 | 0.00 | 0.00 | 88 | 1012.5 |
| 20260831032239 | 61 | 0 | 0.0 | 0.0 | 0.00 | 0.00 | 0.00 | 88 | 1012.6 |
| 20260831032050 | 61 | 0 | 0.0 | 0.0 | 0.00 | 0.00 | 0.00 | 88 | 1012.6 |
| 20260831031900 | 61 | 0 | 0.0 | 0.0 | 0.00 | 0.00 | 0.00 | 88 | 1012.6 |
| 20260831031710 | 61 | 0 | 0.0 | 0.0 | 0.00 | 0.00 | 0.00 | 88 | 1012.5 |
| 20260831031525 | 61 | 0 | 0.0 | 0.0 | 0.00 | 0.00 | 0.00 | 88 | 1012.6 |
| 20260831031330 | 61 | 0 | 0.0 | 0.0 | 0.00 | 0.00 | 0.00 | 88 | 1012.6 |
| 20260831031145 | 61 | 0 | 0.0 | 0.0 | 0.00 | 0.00 | 0.00 | 88 | 1012.5 |
| 20260831031005 | 61 | 0 | 0.0 | 0.0 | 0.00 | 0.00 | 0.00 | 89 | 1012.6 |
| 20260831030932 | 61 | 0 | 0.0 | 0.0 | 0.00 | 0.00 | 0.00 | 89 | 1012.5 |
| 20260831030807 | 61 | 0 | 0.0 | 0.0 | 0.00 | 0.00 | 0.00 | 89 | 1012.5 |
| 20260831030618 | 61 | 0 | 0.0 | 0.0 | 0.00 | 0.00 | 0.00 | 89 | 1012.6 |
| 20260831030420 | 61 | 0 | 0.0 | 0.0 | 0.00 | 0.00 | 0.00 | 89 | 1012.6 |
| 20260831030224 | 61 | 0 | 0.0 | 0.0 | 0.00 | 0.00 | 0.00 | 89 | 1012.5 |
| 20260831030030 | 61 | 0 | 0.0 | 0.0 | 0.00 | 0.00 | 0.00 | 89 | 1012.6 |
| 20260831025835 | 61 | 0 | 0.0 | 0.0 | 0.00 | 0.00 | 0.00 | 89 | 1012.6 |
| 20260831025650 | 61 | 0 | 0.0 | 0.0 | 0.00 | 0.00 | 0.00 | 88 | 1012.6 |
| 20260831025512 | 61 | 0 | 0.0 | 0.0 | 0.00 | 0.00 | 0.00 | 88 | 1012.7 |
| 20260831025315 | 61 | 0 | 0.0 | 0.0 | 0.00 | 0.00 | 0.00 | 89 | 1012.6 |
| 20260831025228 | 61 | 0 | 0.0 | 0.0 | 0.00 | 0.00 | 0.00 | 89 | 1012.8 |
| 20260831025130 | 61 | 0 | 0.0 | 0.0 | 0.00 | 0.00 | 0.00 | 89 | 1012.7 |
| 20260831024945 | 61 | 0 | 0.0 | 0.0 | 0.00 | 0.00 | 0.00 | 89 | 1012.6 |
| 20260831024755 | 61 | 0 | 0.0 | 0.0 | 0.00 | 0.00 | 0.00 | 89 | 1012.7 |
| 20260831024612 | 61 | 0 | 0.0 | 0.0 | 0.00 | 0.00 | 0.00 | 89 | 1012.6 |
| 20260831024438 | 61 | 248 | 0.0 | 0.0 | 0.00 | 0.00 | 0.00 | 89 | 1012.7 |
| 20260831024244 | 61 | 248 | 0.0 | 0.0 | 0.00 | 0.00 | 0.00 | 89 | 1012.6 |
| 20260831024055 | 61 | 248 | 0.0 | 1.0 | 0.00 | 0.00 | 0.00 | 89 | 1012.6 |
| 20260831023855 | 61 | 248 | 1.0 | 1.0 | 0.00 | 0.00 | 0.00 | 89 | 1012.5 |
| 20260831023710 | 61 | 248 | 1.0 | 1.0 | 0.00 | 0.00 | 0.00 | 89 | 1012.6 |
| 20260831023515 | 61 | 248 | 1.0 | 3.0 | 0.00 | 0.00 | 0.00 | 89 | 1012.5 |
| 20260831023433 | 61 | 248 | 1.0 | 3.0 | 0.00 | 0.00 | 0.00 | 89 | 1012.5 |
| 20260831023321 | 61 | 248 | 1.0 | 3.0 | 0.00 | 0.00 | 0.00 | 89 | 1012.6 |
| 20260831023135 | 61 | 248 | 1.0 | 3.0 | 0.00 | 0.00 | 0.00 | 89 | 1012.5 |
| 20260831022945 | 61 | 248 | 1.0 | 3.0 | 0.00 | 0.00 | 0.00 | 90 | 1012.5 |
| 20260831022755 | 61 | 248 | 1.0 | 3.0 | 0.00 | 0.00 | 0.00 | 90 | 1012.5 |
| 20260831022558 | 61 | 248 | 0.0 | 2.0 | 0.00 | 0.00 | 0.00 | 90 | 1012.5 |
| 20260831022409 | 61 | 248 | 0.0 | 2.0 | 0.00 | 0.00 | 0.00 | 90 | 1012.6 |
| 20260831022220 | 61 | 248 | 0.0 | 2.0 | 0.00 | 0.00 | 0.00 | 90 | 1012.6 |
| 20260831022035 | 61 | 248 | 0.0 | 2.0 | 0.00 | 0.00 | 0.00 | 90 | 1012.6 |
| 20260831021855 | 61 | 248 | 1.0 | 2.0 | 0.00 | 0.00 | 0.00 | 90 | 1012.7 |
| 20260831021817 | 61 | 248 | 1.0 | 2.0 | 0.00 | 0.00 | 0.00 | 90 | 1012.7 |
| 20260831021516 | 61 | 248 | 1.0 | 2.0 | 0.00 | 0.00 | 0.00 | 90 | 1012.7 |
| 20260831021337 | 61 | 248 | 1.0 | 2.0 | 0.00 | 0.00 | 0.00 | 90 | 1012.7 |
| 20260831021140 | 61 | 248 | 1.0 | 3.0 | 0.00 | 0.00 | 0.00 | 90 | 1012.7 |
| 20260831020950 | 61 | 248 | 1.0 | 3.0 | 0.00 | 0.00 | 0.00 | 91 | 1012.7 |
| 20260831020810 | 61 | 248 | 0.0 | 3.0 | 0.00 | 0.00 | 0.00 | 91 | 1012.7 |
| 20260831020610 | 61 | 0 | 0.0 | 0.0 | 0.00 | 0.00 | 0.00 | 90 | 1012.6 |
| 20260831020430 | 61 | 0 | 0.0 | 0.0 | 0.00 | 0.00 | 0.00 | 90 | 1012.7 |
| 20260831020243 | 60 | 0 | 0.0 | 0.0 | 0.00 | 0.00 | 0.00 | 90 | 1012.7 |
| 20260831020045 | 60 | 0 | 0.0 | 0.0 | 0.00 | 0.00 | 0.00 | 90 | 1012.7 |
| 20260831015850 | 60 | 0 | 0.0 | 0.0 | 0.00 | 0.00 | 0.00 | 90 | 1012.6 |
| 20260831015650 | 60 | 0 | 0.0 | 0.0 | 0.00 | 0.00 | 0.00 | 90 | 1012.7 |
| 20260831015500 | 60 | 0 | 0.0 | 0.0 | 0.00 | 0.00 | 0.00 | 91 | 1012.7 |
| 20260831015320 | 60 | 0 | 0.0 | 0.0 | 0.00 | 0.00 | 0.00 | 91 | 1012.7 |
| 20260831015140 | 60 | 0 | 0.0 | 0.0 | 0.00 | 0.00 | 0.00 | 90 | 1012.8 |
| 20260831015000 | 60 | 0 | 0.0 | 0.0 | 0.00 | 0.00 | 0.00 | 90 | 1012.8 |
| 20260831014810 | 60 | 0 | 0.0 | 0.0 | 0.00 | 0.00 | 0.00 | 90 | 1012.8 |
| 20260831014624 | 60 | 0 | 0.0 | 0.0 | 0.00 | 0.00 | 0.00 | 90 | 1012.8 |
| 20260831014431 | 60 | 0 | 0.0 | 0.0 | 0.00 | 0.00 | 0.00 | 90 | 1012.7 |
| 20260831014407 | 61 | 0 | 0.0 | 0.0 | 0.00 | 0.00 | 0.00 | 90 | 1012.7 |
| 20260831014255 | 61 | 248 | 0.0 | 0.0 | 0.00 | 0.00 | 0.00 | 90 | 1012.7 |
| 20260831014100 | 61 | 248 | 0.0 | 0.0 | 0.00 | 0.00 | 0.00 | 89 | 1012.8 |
| 20260831013919 | 61 | 248 | 0.0 | 0.0 | 0.00 | 0.00 | 0.00 | 89 | 1012.8 |
| 20260831013740 | 61 | 248 | 0.0 | 2.0 | 0.00 | 0.00 | 0.00 | 89 | 1012.7 |
| 20260831013550 | 61 | 248 | 0.0 | 2.0 | 0.00 | 0.00 | 0.00 | 89 | 1012.8 |
| 20260831013411 | 61 | 0 | 0.0 | 2.0 | 0.00 | 0.00 | 0.00 | 89 | 1012.9 |
| 20260831013220 | 60 | 0 | 0.0 | 0.0 | 0.00 | 0.00 | 0.00 | 89 | 1012.9 |
| 20260831013025 | 60 | 0 | 0.0 | 0.0 | 0.00 | 0.00 | 0.00 | 90 | 1012.9 |
| 20260831012830 | 60 | 0 | 0.0 | 0.0 | 0.00 | 0.00 | 0.00 | 89 | 1012.9 |
| 20260831012650 | 61 | 0 | 0.0 | 0.0 | 0.00 | 0.00 | 0.00 | 89 | 1013.0 |
| 20260831012514 | 61 | 0 | 0.0 | 0.0 | 0.00 | 0.00 | 0.00 | 89 | 1013.1 |
| 20260831012454 | 61 | 0 | 0.0 | 0.0 | 0.00 | 0.00 | 0.00 | 89 | 1013.1 |
| 20260831012306 | 61 | 0 | 0.0 | 0.0 | 0.00 | 0.00 | 0.00 | 89 | 1013.0 |
| 20260831012112 | 61 | 0 | 0.0 | 0.0 | 0.00 | 0.00 | 0.00 | 89 | 1013.0 |
| 20260831011930 | 61 | 0 | 0.0 | 0.0 | 0.00 | 0.00 | 0.00 | 88 | 1013.0 |
| 20260831011730 | 61 | 0 | 0.0 | 0.0 | 0.00 | 0.00 | 0.00 | 88 | 1013.0 |
| 20260831011538 | 61 | 0 | 0.0 | 0.0 | 0.00 | 0.00 | 0.00 | 88 | 1013.0 |
| 20260831011345 | 61 | 0 | 0.0 | 0.0 | 0.00 | 0.00 | 0.00 | 88 | 1013.0 |
| 20260831011200 | 61 | 0 | 0.0 | 0.0 | 0.00 | 0.00 | 0.00 | 88 | 1013.0 |
| 20260831011015 | 61 | 0 | 0.0 | 0.0 | 0.00 | 0.00 | 0.00 | 87 | 1013.0 |
| 20260831010820 | 61 | 0 | 0.0 | 0.0 | 0.00 | 0.00 | 0.00 | 88 | 1013.0 |
| 20260831010807 | 61 | 0 | 0.0 | 0.0 | 0.00 | 0.00 | 0.00 | 87 | 1013.0 |
| 20260831010635 | 62 | 0 | 0.0 | 0.0 | 0.00 | 0.00 | 0.00 | 87 | 1013.1 |
| 20260831010445 | 62 | 0 | 0.0 | 0.0 | 0.00 | 0.00 | 0.00 | 87 | 1013.1 |
| 20260831010245 | 62 | 0 | 0.0 | 0.0 | 0.00 | 0.00 | 0.00 | 87 | 1013.1 |
| 20260831010100 | 62 | 0 | 0.0 | 0.0 | 0.00 | 0.00 | 0.00 | 87 | 1013.1 |
| 20260831005905 | 62 | 0 | 0.0 | 0.0 | 0.00 | 0.00 | 0.00 | 86 | 1013.1 |
| 20260831005705 | 62 | 0 | 0.0 | 0.0 | 0.00 | 0.00 | 0.00 | 86 | 1013.1 |
| 20260831005345 | 62 | 0 | 0.0 | 0.0 | 0.00 | 0.00 | 0.00 | 87 | 1013.3 |
| 20260831005238 | 62 | 0 | 0.0 | 0.0 | 0.00 | 0.00 | 0.00 | 87 | 1013.2 |
| 20260831005150 | 62 | 0 | 0.0 | 0.0 | 0.00 | 0.00 | 0.00 | 87 | 1013.2 |
| 20260831004949 | 62 | 0 | 0.0 | 0.0 | 0.00 | 0.00 | 0.00 | 87 | 1013.2 |
| 20260831004750 | 62 | 0 | 0.0 | 0.0 | 0.00 | 0.00 | 0.00 | 87 | 1013.2 |
| 20260831004550 | 62 | 0 | 0.0 | 0.0 | 0.00 | 0.00 | 0.00 | 87 | 1013.3 |
| 20260831004410 | 62 | 0 | 0.0 | 0.0 | 0.00 | 0.00 | 0.00 | 87 | 1013.3 |
| 20260831004235 | 62 | 0 | 0.0 | 0.0 | 0.00 | 0.00 | 0.00 | 87 | 1013.3 |
| 20260831004041 | 62 | 0 | 0.0 | 0.0 | 0.00 | 0.00 | 0.00 | 87 | 1013.3 |
| 20260831003855 | 62 | 0 | 0.0 | 0.0 | 0.00 | 0.00 | 0.00 | 87 | 1013.4 |
| 20260831003659 | 62 | 0 | 0.0 | 0.0 | 0.00 | 0.00 | 0.00 | 87 | 1013.4 |
| 20260831003557 | 62 | 0 | 0.0 | 0.0 | 0.00 | 0.00 | 0.00 | 87 | 1013.3 |
| 20260831003519 | 62 | 0 | 0.0 | 0.0 | 0.00 | 0.00 | 0.00 | 87 | 1013.4 |
| 20260831003330 | 62 | 0 | 0.0 | 0.0 | 0.00 | 0.00 | 0.00 | 87 | 1013.4 |
| 20260831003135 | 62 | 0 | 0.0 | 0.0 | 0.00 | 0.00 | 0.00 | 87 | 1013.4 |
| 20260831002935 | 62 | 0 | 0.0 | 0.0 | 0.00 | 0.00 | 0.00 | 86 | 1013.4 |
| 20260831002737 | 62 | 0 | 0.0 | 2.0 | 0.00 | 0.00 | 0.00 | 86 | 1013.4 |
| 20260831002542 | 62 | 0 | 0.0 | 2.0 | 0.00 | 0.00 | 0.00 | 87 | 1013.5 |
| 20260831002350 | 62 | 0 | 0.0 | 2.0 | 0.00 | 0.00 | 0.00 | 87 | 1013.4 |
| 20260831002148 | 62 | 0 | 0.0 | 0.0 | 0.00 | 0.00 | 0.00 | 87 | 1013.5 |
| 20260831001948 | 62 | 0 | 0.0 | 0.0 | 0.00 | 0.00 | 0.00 | 86 | 1013.4 |
| 20260831001757 | 62 | 0 | 0.0 | 0.0 | 0.00 | 0.00 | 0.00 | 84 | 1013.4 |
| 20260831001632 | 62 | 0 | 0.0 | 0.0 | 0.00 | 0.00 | 0.00 | 84 | 1013.4 |
| 20260831001444 | 62 | 0 | 0.0 | 0.0 | 0.00 | 0.00 | 0.00 | 84 | 1013.4 |
| 20260831001240 | 62 | 0 | 0.0 | 0.0 | 0.00 | 0.00 | 0.00 | 84 | 1013.4 |
| 20260831001116 | 63 | 0 | 0.0 | 0.0 | 0.00 | 0.00 | 0.00 | 84 | 1013.4 |
| 20260831000904 | 63 | 0 | 0.0 | 0.0 | 0.00 | 0.00 | 0.00 | 84 | 1013.4 |
| 20260831000707 | 63 | 0 | 0.0 | 0.0 | 0.00 | 0.00 | 0.00 | 83 | 1013.4 |
| 20260831000515 | 63 | 0 | 0.0 | 0.0 | 0.00 | 0.00 | 0.00 | 83 | 1013.4 |
| 20260831000315 | 63 | 0 | 0.0 | 0.0 | 0.00 | 0.00 | 0.00 | 82 | 1013.4 |
| 20260831000135 | 63 | 0 | 0.0 | 0.0 | 0.00 | 0.00 | 0.00 | 82 | 1013.5 |
| 20260831000010 | 64 | 0 | 0.0 | 0.0 | 0.00 | 0.00 | 0.00 | 82 | 1013.5 |
| 20260830235935 | 64 | 0 | 0.0 | 0.0 | 0.00 | 0.00 | 0.00 | 82 | 1013.5 |
| 20260830235740 | 64 | 0 | 0.0 | 0.0 | 0.00 | 0.00 | 0.00 | 82 | 1013.4 |
| 20260830235550 | 64 | 0 | 0.0 | 0.0 | 0.00 | 0.00 | 0.00 | 81 | 1013.4 |
| 20260830235410 | 64 | 0 | 0.0 | 0.0 | 0.00 | 0.00 | 0.00 | 81 | 1013.4 |
| 20260830235230 | 65 | 0 | 0.0 | 0.0 | 0.00 | 0.00 | 0.00 | 80 | 1013.4 |
| 20260830235034 | 65 | 0 | 0.0 | 0.0 | 0.00 | 0.00 | 0.00 | 79 | 1013.4 |
| 20260830234840 | 65 | 0 | 0.0 | 0.0 | 0.00 | 0.00 | 0.00 | 79 | 1013.4 |
| 20260830234650 | 65 | 0 | 0.0 | 0.0 | 0.00 | 0.00 | 0.00 | 78 | 1013.5 |
| 20260830234510 | 65 | 0 | 0.0 | 0.0 | 0.00 | 0.00 | 0.00 | 78 | 1013.5 |
| 20260830234335 | 65 | 0 | 0.0 | 0.0 | 0.00 | 0.00 | 0.00 | 77 | 1013.5 |
| 20260830234237 | 65 | 248 | 0.0 | 0.0 | 0.00 | 0.00 | 0.00 | 77 | 1013.6 |
| 20260830234152 | 65 | 248 | 0.0 | 0.0 | 0.00 | 0.00 | 0.00 | 77 | 1013.6 |
| 20260830234000 | 65 | 248 | 0.0 | 1.0 | 0.00 | 0.00 | 0.00 | 77 | 1013.5 |
| 20260830233820 | 65 | 248 | 0.0 | 2.0 | 0.00 | 0.00 | 0.00 | 77 | 1013.4 |
| 20260830233634 | 65 | 248 | 0.0 | 2.0 | 0.00 | 0.00 | 0.00 | 77 | 1013.5 |
| 20260830233439 | 65 | 248 | 0.0 | 2.0 | 0.00 | 0.00 | 0.00 | 77 | 1013.5 |
| 20260830233244 | 65 | 248 | 0.0 | 0.0 | 0.00 | 0.00 | 0.00 | 76 | 1013.5 |
| 20260830233055 | 66 | 248 | 0.0 | 3.0 | 0.00 | 0.00 | 0.00 | 76 | 1013.4 |
| 20260830232900 | 66 | 248 | 0.0 | 3.0 | 0.00 | 0.00 | 0.00 | 76 | 1013.5 |
| 20260830232700 | 66 | 0 | 0.0 | 3.0 | 0.00 | 0.00 | 0.00 | 76 | 1013.5 |
| 20260830232505 | 66 | 248 | 0.0 | 0.0 | 0.00 | 0.00 | 0.00 | 76 | 1013.4 |
| 20260830232457 | 66 | 248 | 0.0 | 0.0 | 0.00 | 0.00 | 0.00 | 76 | 1013.5 |
| 20260830232311 | 66 | 248 | 0.0 | 0.0 | 0.00 | 0.00 | 0.00 | 76 | 1013.5 |
| 20260830232120 | 66 | 248 | 0.0 | 2.0 | 0.00 | 0.00 | 0.00 | 76 | 1013.5 |
| 20260830231940 | 66 | 248 | 0.0 | 2.0 | 0.00 | 0.00 | 0.00 | 76 | 1013.4 |
| 20260830231744 | 66 | 248 | 0.0 | 2.0 | 0.00 | 0.00 | 0.00 | 75 | 1013.4 |
| 20260830231600 | 66 | 248 | 0.0 | 2.0 | 0.00 | 0.00 | 0.00 | 75 | 1013.5 |
| 20260830231410 | 66 | 248 | 0.0 | 1.0 | 0.00 | 0.00 | 0.00 | 75 | 1013.4 |
| 20260830231220 | 66 | 248 | 1.0 | 2.0 | 0.00 | 0.00 | 0.00 | 75 | 1013.4 |
| 20260830231022 | 66 | 248 | 1.0 | 2.0 | 0.00 | 0.00 | 0.00 | 75 | 1013.5 |
| 20260830230830 | 66 | 248 | 1.0 | 3.0 | 0.00 | 0.00 | 0.00 | 75 | 1013.5 |
| 20260830230710 | 66 | 248 | 1.0 | 3.0 | 0.00 | 0.00 | 0.00 | 74 | 1013.5 |
| 20260830230644 | 66 | 248 | 1.0 | 4.0 | 0.00 | 0.00 | 0.00 | 74 | 1013.4 |
| 20260830230500 | 66 | 248 | 1.0 | 4.0 | 0.00 | 0.00 | 0.00 | 74 | 1013.4 |
| 20260830230310 | 66 | 248 | 1.0 | 4.0 | 0.00 | 0.00 | 0.00 | 74 | 1013.5 |
| 20260830230120 | 66 | 248 | 1.0 | 3.0 | 0.00 | 0.00 | 0.00 | 74 | 1013.4 |
| 20260830225935 | 66 | 248 | 1.0 | 4.0 | 0.00 | 0.00 | 0.00 | 74 | 1013.4 |
| 20260830225735 | 66 | 248 | 1.0 | 4.0 | 0.00 | 0.00 | 0.00 | 74 | 1013.4 |
| 20260830225544 | 66 | 248 | 1.0 | 4.0 | 0.00 | 0.00 | 0.00 | 75 | 1013.5 |
| 20260830225355 | 66 | 248 | 1.0 | 2.0 | 0.00 | 0.00 | 0.00 | 74 | 1013.5 |
| 20260830225153 | 66 | 248 | 2.0 | 3.0 | 0.00 | 0.00 | 0.00 | 74 | 1013.5 |
| 20260830225101 | 67 | 248 | 2.0 | 3.0 | 0.00 | 0.00 | 0.00 | 74 | 1013.5 |
| 20260830225004 | 67 | 248 | 2.0 | 3.0 | 0.00 | 0.00 | 0.00 | 74 | 1013.6 |
| 20260830224810 | 67 | 248 | 2.0 | 3.0 | 0.00 | 0.00 | 0.00 | 74 | 1013.6 |
| 20260830224615 | 67 | 248 | 2.0 | 3.0 | 0.00 | 0.00 | 0.00 | 74 | 1013.5 |
| 20260830224435 | 67 | 248 | 2.0 | 3.0 | 0.00 | 0.00 | 0.00 | 74 | 1013.6 |
| 20260830224236 | 67 | 248 | 2.0 | 3.0 | 0.00 | 0.00 | 0.00 | 74 | 1013.5 |
| 20260830224050 | 67 | 248 | 2.0 | 2.0 | 0.00 | 0.00 | 0.00 | 74 | 1013.5 |
| 20260830223904 | 67 | 248 | 2.0 | 4.0 | 0.00 | 0.00 | 0.00 | 74 | 1013.4 |
| 20260830223710 | 67 | 248 | 2.0 | 4.0 | 0.00 | 0.00 | 0.00 | 73 | 1013.4 |
| 20260830223524 | 67 | 248 | 2.0 | 5.0 | 0.00 | 0.00 | 0.00 | 73 | 1013.4 |
| 20260830223339 | 67 | 225 | 2.0 | 5.0 | 0.00 | 0.00 | 0.00 | 73 | 1013.3 |
| 20260830223201 | 67 | 248 | 2.0 | 5.0 | 0.00 | 0.00 | 0.00 | 73 | 1013.3 |
| 20260830223015 | 67 | 248 | 3.0 | 5.0 | 0.00 | 0.00 | 0.00 | 73 | 1013.4 |
| 20260830222830 | 67 | 248 | 3.0 | 5.0 | 0.00 | 0.00 | 0.00 | 73 | 1013.5 |
| 20260830222641 | 67 | 292 | 3.0 | 5.0 | 0.00 | 0.00 | 0.00 | 73 | 1013.5 |
| 20260830222455 | 67 | 292 | 3.0 | 6.0 | 0.00 | 0.00 | 0.00 | 73 | 1013.5 |
| 20260830222300 | 67 | 270 | 3.0 | 6.0 | 0.00 | 0.00 | 0.00 | 72 | 1013.5 |
| 20260830222120 | 67 | 248 | 3.0 | 5.0 | 0.00 | 0.00 | 0.00 | 72 | 1013.5 |
| 20260830221940 | 67 | 270 | 3.0 | 5.0 | 0.00 | 0.00 | 0.00 | 73 | 1013.4 |
| 20260830221922 | 67 | 248 | 3.0 | 5.0 | 0.00 | 0.00 | 0.00 | 73 | 1013.5 |
| 20260830221740 | 67 | 248 | 3.0 | 5.0 | 0.00 | 0.00 | 0.00 | 73 | 1013.6 |
| 20260830221550 | 67 | 202 | 3.0 | 4.0 | 0.00 | 0.00 | 0.00 | 73 | 1013.5 |
| 20260830221355 | 67 | 202 | 3.0 | 4.0 | 0.00 | 0.00 | 0.00 | 73 | 1013.6 |
| 20260830221215 | 67 | 202 | 3.0 | 4.0 | 0.00 | 0.00 | 0.00 | 73 | 1013.6 |
| 20260830221015 | 67 | 202 | 2.0 | 5.0 | 0.00 | 0.00 | 0.00 | 72 | 1013.6 |
| 20260830220831 | 67 | 248 | 2.0 | 4.0 | 0.00 | 0.00 | 0.00 | 73 | 1013.6 |
| 20260830220639 | 67 | 270 | 2.0 | 4.0 | 0.00 | 0.00 | 0.00 | 73 | 1013.5 |
| 20260830220503 | 67 | 270 | 2.0 | 4.0 | 0.00 | 0.00 | 0.00 | 73 | 1013.5 |
| 20260830220257 | 67 | 270 | 2.0 | 3.0 | 0.00 | 0.00 | 0.00 | 73 | 1013.6 |
| 20260830220124 | 67 | 270 | 2.0 | 3.0 | 0.00 | 0.00 | 0.00 | 73 | 1013.6 |
| 20260830215935 | 67 | 225 | 3.0 | 4.0 | 0.00 | 0.00 | 0.00 | 73 | 1013.6 |
| 20260830215740 | 67 | 225 | 3.0 | 5.0 | 0.00 | 0.00 | 0.00 | 72 | 1013.6 |
| 20260830215600 | 67 | 225 | 3.0 | 5.0 | 0.00 | 0.00 | 0.00 | 72 | 1013.5 |
| 20260830215404 | 67 | 248 | 2.0 | 5.0 | 0.00 | 0.00 | 0.00 | 72 | 1013.5 |
| 20260830215204 | 67 | 248 | 2.0 | 5.0 | 0.00 | 0.00 | 0.00 | 72 | 1013.4 |
| 20260830215024 | 67 | 248 | 2.0 | 5.0 | 0.00 | 0.00 | 0.00 | 72 | 1013.5 |
| 20260830214840 | 67 | 270 | 2.0 | 5.0 | 0.00 | 0.00 | 0.00 | 72 | 1013.5 |
| 20260830214704 | 67 | 202 | 2.0 | 5.0 | 0.00 | 0.00 | 0.00 | 72 | 1013.5 |
| 20260830214523 | 67 | 202 | 2.0 | 4.0 | 0.00 | 0.00 | 0.00 | 73 | 1013.5 |
| 20260830214412 | 67 | 202 | 2.0 | 4.0 | 0.00 | 0.00 | 0.00 | 73 | 1013.5 |
| 20260830214344 | 67 | 225 | 2.0 | 3.0 | 0.00 | 0.00 | 0.00 | 73 | 1013.5 |
| 20260830214152 | 67 | 225 | 2.0 | 4.0 | 0.00 | 0.00 | 0.00 | 73 | 1013.4 |
| 20260830213959 | 67 | 225 | 2.0 | 4.0 | 0.00 | 0.00 | 0.00 | 73 | 1013.5 |
| 20260830213810 | 67 | 225 | 1.0 | 4.0 | 0.00 | 0.00 | 0.00 | 73 | 1013.5 |
| 20260830213630 | 67 | 225 | 1.0 | 4.0 | 0.00 | 0.00 | 0.00 | 73 | 1013.4 |
| 20260830213444 | 67 | 225 | 1.0 | 4.0 | 0.00 | 0.00 | 0.00 | 73 | 1013.4 |
| 20260830213255 | 67 | 248 | 1.0 | 4.0 | 0.00 | 0.00 | 0.00 | 72 | 1013.4 |
| 20260830213115 | 67 | 248 | 1.0 | 4.0 | 0.00 | 0.00 | 0.00 | 72 | 1013.4 |
| 20260830212924 | 67 | 248 | 2.0 | 4.0 | 0.00 | 0.00 | 0.00 | 72 | 1013.4 |
| 20260830212742 | 67 | 248 | 2.0 | 5.0 | 0.00 | 0.00 | 0.00 | 72 | 1013.4 |
| 20260830212550 | 67 | 225 | 2.0 | 5.0 | 0.00 | 0.00 | 0.00 | 72 | 1013.4 |
| 20260830212528 | 67 | 225 | 2.0 | 5.0 | 0.00 | 0.00 | 0.00 | 72 | 1013.4 |
| 20260830212404 | 67 | 225 | 2.0 | 5.0 | 0.00 | 0.00 | 0.00 | 72 | 1013.4 |
| 20260830212220 | 67 | 225 | 2.0 | 4.0 | 0.00 | 0.00 | 0.00 | 72 | 1013.3 |
| 20260830212036 | 67 | 202 | 2.0 | 4.0 | 0.00 | 0.00 | 0.00 | 72 | 1013.4 |
| 20260830211844 | 67 | 292 | 2.0 | 3.0 | 0.00 | 0.00 | 0.00 | 72 | 1013.4 |
| 20260830211650 | 67 | 292 | 1.0 | 3.0 | 0.00 | 0.00 | 0.00 | 73 | 1013.3 |
| 20260830211500 | 67 | 292 | 1.0 | 3.0 | 0.00 | 0.00 | 0.00 | 74 | 1013.4 |
| 20260830211320 | 67 | 292 | 1.0 | 3.0 | 0.00 | 0.00 | 0.00 | 74 | 1013.4 |
| 20260830211125 | 67 | 292 | 1.0 | 2.0 | 0.00 | 0.00 | 0.00 | 75 | 1013.4 |
| 20260830210935 | 67 | 292 | 1.0 | 2.0 | 0.00 | 0.00 | 0.00 | 75 | 1013.4 |
| 20260830210849 | 67 | 292 | 0.0 | 2.0 | 0.00 | 0.00 | 0.00 | 75 | 1013.5 |
| 20260830210744 | 67 | 292 | 0.0 | 2.0 | 0.00 | 0.00 | 0.00 | 76 | 1013.4 |
| 20260830210604 | 67 | 292 | 0.0 | 2.0 | 0.00 | 0.00 | 0.00 | 76 | 1013.5 |
| 20260830210420 | 66 | 0 | 0.0 | 0.0 | 0.00 | 0.00 | 0.00 | 77 | 1013.4 |
| 20260830210235 | 66 | 0 | 0.0 | 0.0 | 0.00 | 0.00 | 0.00 | 76 | 1013.4 |
| 20260830210036 | 66 | 0 | 0.0 | 0.0 | 0.00 | 0.00 | 0.00 | 77 | 1013.4 |
| 20260830205851 | 66 | 0 | 0.0 | 0.0 | 0.00 | 0.00 | 0.00 | 76 | 1013.4 |
| 20260830205704 | 66 | 0 | 0.0 | 0.0 | 0.00 | 0.00 | 0.00 | 76 | 1013.4 |
| 20260830205510 | 65 | 0 | 0.0 | 0.0 | 0.00 | 0.00 | 0.00 | 76 | 1013.5 |
| 20260830205319 | 65 | 0 | 0.0 | 0.0 | 0.00 | 0.00 | 0.00 | 77 | 1013.4 |
| 20260830205158 | 65 | 0 | 0.0 | 0.0 | 0.00 | 0.00 | 0.00 | 78 | 1013.4 |
| 20260830205135 | 65 | 0 | 0.0 | 0.0 | 0.00 | 0.00 | 0.00 | 79 | 1013.5 |
| 20260830204944 | 65 | 0 | 0.0 | 0.0 | 0.00 | 0.00 | 0.00 | 80 | 1013.5 |
| 20260830204742 | 65 | 0 | 0.0 | 0.0 | 0.00 | 0.00 | 0.00 | 80 | 1013.4 |
| 20260830204605 | 65 | 0 | 0.0 | 0.0 | 0.00 | 0.00 | 0.00 | 80 | 1013.5 |
| 20260830204420 | 65 | 0 | 0.0 | 0.0 | 0.00 | 0.00 | 0.00 | 79 | 1013.5 |
| 20260830204220 | 65 | 0 | 0.0 | 0.0 | 0.00 | 0.00 | 0.00 | 79 | 1013.4 |
| 20260830204020 | 65 | 0 | 0.0 | 0.0 | 0.00 | 0.00 | 0.00 | 79 | 1013.4 |
| 20260830203844 | 65 | 0 | 0.0 | 0.0 | 0.00 | 0.00 | 0.00 | 79 | 1013.3 |
| 20260830203700 | 65 | 0 | 0.0 | 0.0 | 0.00 | 0.00 | 0.00 | 79 | 1013.4 |
| 20260830203504 | 65 | 0 | 0.0 | 0.0 | 0.00 | 0.00 | 0.00 | 78 | 1013.4 |
| 20260830203428 | 65 | 0 | 0.0 | 0.0 | 0.00 | 0.00 | 0.00 | 78 | 1013.3 |
| 20260830203315 | 65 | 0 | 0.0 | 0.0 | 0.00 | 0.00 | 0.00 | 78 | 1013.3 |
| 20260830203115 | 65 | 0 | 0.0 | 0.0 | 0.00 | 0.00 | 0.00 | 78 | 1013.4 |
| 20260830202924 | 65 | 0 | 0.0 | 0.0 | 0.00 | 0.00 | 0.00 | 78 | 1013.3 |
| 20260830202741 | 65 | 0 | 0.0 | 0.0 | 0.00 | 0.00 | 0.00 | 78 | 1013.5 |
| 20260830202543 | 65 | 0 | 0.0 | 0.0 | 0.00 | 0.00 | 0.00 | 78 | 1013.5 |
| 20260830202404 | 65 | 0 | 0.0 | 0.0 | 0.00 | 0.00 | 0.00 | 78 | 1013.5 |
| 20260830202220 | 65 | 0 | 0.0 | 0.0 | 0.00 | 0.00 | 0.00 | 78 | 1013.4 |
| 20260830202020 | 65 | 0 | 0.0 | 0.0 | 0.00 | 0.00 | 0.00 | 78 | 1013.4 |
| 20260830201902 | 65 | 0 | 0.0 | 0.0 | 0.00 | 0.00 | 0.00 | 78 | 1013.4 |
| 20260830201820 | 65 | 0 | 0.0 | 0.0 | 0.00 | 0.00 | 0.00 | 79 | 1013.4 |
| 20260830201620 | 65 | 0 | 0.0 | 0.0 | 0.00 | 0.00 | 0.00 | 79 | 1013.3 |
| 20260830201430 | 65 | 0 | 0.0 | 0.0 | 0.00 | 0.00 | 0.00 | 80 | 1013.4 |
| 20260830201245 | 65 | 0 | 0.0 | 0.0 | 0.00 | 0.00 | 0.00 | 79 | 1013.4 |
| 20260830201104 | 65 | 0 | 0.0 | 0.0 | 0.00 | 0.00 | 0.00 | 78 | 1013.4 |
| 20260830200920 | 65 | 0 | 0.0 | 0.0 | 0.00 | 0.00 | 0.00 | 78 | 1013.4 |
| 20260830200744 | 65 | 0 | 0.0 | 0.0 | 0.00 | 0.00 | 0.00 | 78 | 1013.4 |
| 20260830200604 | 65 | 0 | 0.0 | 0.0 | 0.00 | 0.00 | 0.00 | 78 | 1013.4 |
| 20260830200420 | 65 | 0 | 0.0 | 0.0 | 0.00 | 0.00 | 0.00 | 79 | 1013.3 |
| 20260830200240 | 65 | 0 | 0.0 | 0.0 | 0.00 | 0.00 | 0.00 | 79 | 1013.3 |
| 20260830200047 | 65 | 0 | 0.0 | 0.0 | 0.00 | 0.00 | 0.00 | 77 | 1013.4 |
| 20260830195912 | 65 | 0 | 0.0 | 0.0 | 0.00 | 0.00 | 0.00 | 77 | 1013.5 |
| 20260830195725 | 65 | 0 | 0.0 | 0.0 | 0.00 | 0.00 | 0.00 | 77 | 1013.4 |
| 20260830195539 | 66 | 0 | 0.0 | 0.0 | 0.00 | 0.00 | 0.00 | 76 | 1013.4 |
| 20260830195350 | 66 | 0 | 0.0 | 0.0 | 0.00 | 0.00 | 0.00 | 75 | 1013.4 |
| 20260830195201 | 66 | 0 | 0.0 | 0.0 | 0.00 | 0.00 | 0.00 | 75 | 1013.4 |
| 20260830195004 | 66 | 0 | 0.0 | 0.0 | 0.00 | 0.00 | 0.00 | 74 | 1013.4 |
| 20260830194804 | 66 | 0 | 0.0 | 0.0 | 0.00 | 0.00 | 0.00 | 74 | 1013.5 |
| 20260830194615 | 67 | 0 | 0.0 | 0.0 | 0.00 | 0.00 | 0.00 | 73 | 1013.4 |
| 20260830194425 | 67 | 0 | 0.0 | 0.0 | 0.00 | 0.00 | 0.00 | 73 | 1013.4 |
| 20260830194249 | 67 | 0 | 0.0 | 0.0 | 0.00 | 0.00 | 0.00 | 73 | 1013.4 |
| 20260830194227 | 67 | 0 | 0.0 | 0.0 | 0.00 | 0.00 | 0.00 | 73 | 1013.4 |
| 20260830194043 | 67 | 0 | 0.0 | 0.0 | 0.00 | 0.00 | 0.00 | 73 | 1013.4 |
| 20260830193855 | 67 | 0 | 0.0 | 0.0 | 0.00 | 0.00 | 0.00 | 73 | 1013.4 |
| 20260830193704 | 67 | 0 | 0.0 | 0.0 | 0.00 | 0.00 | 0.00 | 73 | 1013.4 |
| 20260830193511 | 67 | 0 | 0.0 | 0.0 | 0.00 | 0.00 | 0.00 | 72 | 1013.4 |
| 20260830193320 | 67 | 0 | 0.0 | 0.0 | 0.00 | 0.00 | 0.00 | 72 | 1013.3 |
| 20260830193120 | 68 | 0 | 0.0 | 0.0 | 0.00 | 0.00 | 0.00 | 72 | 1013.3 |
| 20260830192930 | 68 | 0 | 0.0 | 0.0 | 0.00 | 0.00 | 0.00 | 72 | 1013.3 |
| 20260830192745 | 68 | 0 | 0.0 | 0.0 | 0.00 | 0.00 | 0.00 | 71 | 1013.2 |
| 20260830192623 | 68 | 0 | 0.0 | 0.0 | 0.00 | 0.00 | 0.00 | 70 | 1013.3 |
| 20260830192550 | 68 | 0 | 0.0 | 0.0 | 0.00 | 0.00 | 0.00 | 70 | 1013.3 |
| 20260830192410 | 69 | 0 | 0.0 | 0.0 | 0.00 | 0.00 | 0.00 | 69 | 1013.3 |
| 20260830192220 | 69 | 292 | 0.0 | 0.0 | 0.00 | 0.00 | 0.00 | 69 | 1013.3 |
| 20260830192020 | 69 | 292 | 0.0 | 0.0 | 0.00 | 0.00 | 0.00 | 67 | 1013.2 |
| 20260830191824 | 69 | 292 | 0.0 | 0.0 | 0.00 | 0.00 | 0.00 | 67 | 1013.3 |
| 20260830191644 | 70 | 292 | 0.0 | 0.0 | 0.00 | 0.00 | 0.00 | 67 | 1013.3 |
| 20260830191501 | 70 | 292 | 0.0 | 0.0 | 0.00 | 0.00 | 0.00 | 66 | 1013.3 |
| 20260830191315 | 70 | 292 | 0.0 | 0.0 | 0.00 | 0.00 | 0.00 | 66 | 1013.3 |
| 20260830191121 | 70 | 292 | 1.0 | 0.0 | 0.00 | 0.00 | 0.00 | 66 | 1013.2 |
| 20260830190940 | 70 | 292 | 1.0 | 0.0 | 0.00 | 0.00 | 0.00 | 65 | 1013.2 |
| 20260830190755 | 71 | 292 | 1.0 | 0.0 | 0.00 | 0.00 | 0.00 | 65 | 1013.2 |
| 20260830190738 | 71 | 292 | 1.0 | 3.0 | 0.00 | 0.00 | 0.00 | 65 | 1013.2 |
| 20260830190609 | 71 | 292 | 1.0 | 3.0 | 0.00 | 0.00 | 0.00 | 65 | 1013.2 |
| 20260830190424 | 71 | 292 | 2.0 | 3.0 | 0.00 | 0.00 | 0.00 | 64 | 1013.2 |
| 20260830190240 | 71 | 292 | 2.0 | 3.0 | 0.00 | 0.00 | 0.00 | 64 | 1013.2 |
| 20260830190100 | 71 | 292 | 2.0 | 3.0 | 0.00 | 0.00 | 0.00 | 64 | 1013.1 |
| 20260830185900 | 71 | 292 | 2.0 | 3.0 | 0.00 | 0.00 | 0.00 | 64 | 1013.1 |
| 20260830185719 | 71 | 292 | 2.0 | 3.0 | 0.00 | 0.00 | 0.00 | 63 | 1013.1 |
| 20260830185539 | 71 | 292 | 2.0 | 3.0 | 0.00 | 0.00 | 0.00 | 63 | 1013.1 |
| 20260830185350 | 71 | 292 | 2.0 | 5.0 | 0.00 | 0.00 | 0.00 | 63 | 1013.1 |
| 20260830185205 | 71 | 292 | 2.0 | 5.0 | 0.00 | 0.00 | 0.00 | 63 | 1013.1 |
| 20260830185015 | 72 | 315 | 2.0 | 5.0 | 0.00 | 0.00 | 0.00 | 62 | 1013.1 |
| 20260830184928 | 72 | 292 | 2.0 | 5.0 | 0.00 | 0.00 | 0.00 | 62 | 1013.1 |
| 20260830184815 | 72 | 292 | 2.0 | 5.0 | 0.00 | 0.00 | 0.00 | 62 | 1013.1 |
| 20260830184615 | 72 | 292 | 2.0 | 5.0 | 0.00 | 0.00 | 0.00 | 61 | 1013.1 |
| 20260830184420 | 72 | 248 | 3.0 | 4.0 | 0.00 | 0.00 | 0.00 | 62 | 1013.1 |
| 20260830184230 | 72 | 248 | 3.0 | 6.0 | 0.00 | 0.00 | 0.00 | 61 | 1013.0 |
| 20260830184043 | 72 | 270 | 3.0 | 8.0 | 0.00 | 0.00 | 0.00 | 61 | 1013.0 |
| 20260830183905 | 72 | 270 | 4.0 | 8.0 | 0.00 | 0.00 | 0.00 | 61 | 1013.0 |
| 20260830183730 | 72 | 292 | 4.0 | 8.0 | 0.00 | 0.00 | 0.00 | 60 | 1013.0 |
| 20260830183550 | 72 | 292 | 5.0 | 8.0 | 0.00 | 0.00 | 0.00 | 60 | 1013.0 |
| 20260830183410 | 72 | 248 | 4.0 | 8.0 | 0.00 | 0.00 | 0.00 | 60 | 1012.9 |
| 20260830183248 | 72 | 292 | 4.0 | 8.0 | 0.00 | 0.00 | 0.00 | 60 | 1013.0 |
| 20260830183215 | 72 | 292 | 4.0 | 8.0 | 0.00 | 0.00 | 0.00 | 60 | 1013.0 |
| 20260830183020 | 72 | 225 | 5.0 | 8.0 | 0.00 | 0.00 | 0.00 | 60 | 1013.0 |
| 20260830182830 | 72 | 270 | 5.0 | 8.0 | 0.00 | 0.00 | 0.00 | 60 | 1012.9 |
| 20260830182640 | 72 | 315 | 5.0 | 8.0 | 0.00 | 0.00 | 0.00 | 59 | 1013.0 |
| 20260830182500 | 72 | 225 | 4.0 | 8.0 | 0.00 | 0.00 | 0.00 | 60 | 1012.9 |
| 20260830182315 | 72 | 225 | 4.0 | 8.0 | 0.00 | 0.00 | 0.00 | 59 | 1013.0 |
| 20260830182120 | 72 | 292 | 4.0 | 8.0 | 0.00 | 0.00 | 0.00 | 59 | 1012.9 |
| 20260830181935 | 73 | 270 | 5.0 | 8.0 | 0.00 | 0.00 | 0.00 | 59 | 1013.0 |
| 20260830181745 | 73 | 225 | 4.0 | 6.0 | 0.00 | 0.00 | 0.00 | 59 | 1012.9 |
| 20260830181722 | 73 | 248 | 4.0 | 6.0 | 0.00 | 0.00 | 0.00 | 59 | 1012.9 |
| 20260830181555 | 73 | 248 | 5.0 | 8.0 | 0.00 | 0.00 | 0.00 | 59 | 1012.9 |
| 20260830181408 | 73 | 225 | 5.0 | 8.0 | 0.00 | 0.00 | 0.00 | 59 | 1012.8 |
| 20260830181210 | 73 | 270 | 5.0 | 8.0 | 0.00 | 0.00 | 0.00 | 58 | 1012.8 |
| 20260830181030 | 73 | 270 | 5.0 | 9.0 | 0.00 | 0.00 | 0.00 | 59 | 1012.7 |
| 20260830180840 | 73 | 248 | 5.0 | 9.0 | 0.00 | 0.00 | 0.00 | 58 | 1012.7 |
| 20260830180644 | 73 | 248 | 6.0 | 9.0 | 0.00 | 0.00 | 0.00 | 58 | 1012.7 |
| 20260830180503 | 73 | 202 | 6.0 | 9.0 | 0.00 | 0.00 | 0.00 | 58 | 1012.6 |
| 20260830180320 | 73 | 248 | 6.0 | 9.0 | 0.00 | 0.00 | 0.00 | 58 | 1012.7 |
| 20260830180138 | 73 | 202 | 6.0 | 9.0 | 0.00 | 0.00 | 0.00 | 58 | 1012.7 |
| 20260830180108 | 73 | 248 | 6.0 | 9.0 | 0.00 | 0.00 | 0.00 | 58 | 1012.6 |
| 20260830175940 | 73 | 248 | 6.0 | 8.0 | 0.00 | 0.00 | 0.00 | 58 | 1012.6 |
| 20260830175748 | 73 | 292 | 5.0 | 7.0 | 0.00 | 0.00 | 0.00 | 58 | 1012.6 |
| 20260830175558 | 73 | 248 | 5.0 | 7.0 | 0.00 | 0.00 | 0.00 | 58 | 1012.6 |
| 20260830175410 | 73 | 248 | 5.0 | 7.0 | 0.00 | 0.00 | 0.00 | 57 | 1012.6 |
| 20260830175224 | 73 | 202 | 5.0 | 7.0 | 0.00 | 0.00 | 0.00 | 57 | 1012.5 |
| 20260830175030 | 73 | 225 | 5.0 | 7.0 | 0.00 | 0.00 | 0.00 | 57 | 1012.5 |
| 20260830174829 | 74 | 225 | 5.0 | 7.0 | 0.00 | 0.00 | 0.00 | 57 | 1012.4 |
| 20260830174644 | 74 | 202 | 5.0 | 7.0 | 0.00 | 0.00 | 0.00 | 57 | 1012.5 |
| 20260830174452 | 74 | 248 | 5.0 | 8.0 | 0.00 | 0.00 | 0.00 | 57 | 1012.4 |
| 20260830174431 | 74 | 248 | 5.0 | 8.0 | 0.00 | 0.00 | 0.00 | 57 | 1012.4 |
| 20260830174325 | 74 | 248 | 5.0 | 8.0 | 0.00 | 0.00 | 0.00 | 57 | 1012.4 |
| 20260830174259 | 74 | 248 | 5.0 | 8.0 | 0.00 | 0.00 | 0.00 | 57 | 1012.4 |
| 20260830174111 | 74 | 248 | 6.0 | 8.0 | 0.00 | 0.00 | 0.00 | 56 | 1012.4 |
| 20260830173924 | 74 | 202 | 6.0 | 8.0 | 0.00 | 0.00 | 0.00 | 56 | 1012.4 |
| 20260830173725 | 74 | 270 | 6.0 | 8.0 | 0.00 | 0.00 | 0.00 | 56 | 1012.4 |
| 20260830173543 | 74 | 225 | 6.0 | 8.0 | 0.00 | 0.00 | 0.00 | 56 | 1012.3 |
| 20260830173355 | 74 | 270 | 6.0 | 7.0 | 0.00 | 0.00 | 0.00 | 56 | 1012.4 |
| 20260830173200 | 74 | 225 | 6.0 | 8.0 | 0.00 | 0.00 | 0.00 | 55 | 1012.4 |
| 20260830173002 | 74 | 248 | 6.0 | 8.0 | 0.00 | 0.00 | 0.00 | 55 | 1012.3 |
| 20260830172815 | 74 | 248 | 6.0 | 8.0 | 0.00 | 0.00 | 0.00 | 55 | 1012.4 |
| 20260830172620 | 74 | 248 | 6.0 | 8.0 | 0.00 | 0.00 | 0.00 | 55 | 1012.3 |
| 20260830172430 | 74 | 225 | 6.0 | 9.0 | 0.00 | 0.00 | 0.00 | 55 | 1012.4 |
| 20260830172230 | 75 | 292 | 6.0 | 10.0 | 0.00 | 0.00 | 0.00 | 54 | 1012.3 |
| 20260830172035 | 75 | 225 | 6.0 | 10.0 | 0.00 | 0.00 | 0.00 | 54 | 1012.3 |
| 20260830171845 | 75 | 225 | 6.0 | 10.0 | 0.00 | 0.00 | 0.00 | 54 | 1012.3 |
| 20260830171653 | 75 | 225 | 6.0 | 10.0 | 0.00 | 0.00 | 0.00 | 54 | 1012.3 |
| 20260830171510 | 75 | 292 | 6.0 | 10.0 | 0.00 | 0.00 | 0.00 | 54 | 1012.4 |
| 20260830171320 | 75 | 248 | 6.0 | 10.0 | 0.00 | 0.00 | 0.00 | 53 | 1012.3 |
| 20260830171145 | 75 | 248 | 6.0 | 10.0 | 0.00 | 0.00 | 0.00 | 53 | 1012.4 |
| 20260830171000 | 75 | 270 | 6.0 | 10.0 | 0.00 | 0.00 | 0.00 | 53 | 1012.4 |
| 20260830170937 | 75 | 270 | 6.0 | 10.0 | 0.00 | 0.00 | 0.00 | 53 | 1012.4 |
| 20260830170801 | 75 | 225 | 7.0 | 10.0 | 0.00 | 0.00 | 0.00 | 53 | 1012.3 |
| 20260830170615 | 75 | 270 | 7.0 | 10.0 | 0.00 | 0.00 | 0.00 | 53 | 1012.4 |
| 20260830170440 | 75 | 202 | 7.0 | 10.0 | 0.00 | 0.00 | 0.00 | 53 | 1012.3 |
| 20260830170255 | 75 | 248 | 6.0 | 11.0 | 0.00 | 0.00 | 0.00 | 53 | 1012.3 |
| 20260830170106 | 75 | 292 | 7.0 | 11.0 | 0.00 | 0.00 | 0.00 | 52 | 1012.2 |
| 20260830165919 | 75 | 248 | 7.0 | 11.0 | 0.00 | 0.00 | 0.00 | 52 | 1012.2 |
| 20260830165725 | 75 | 292 | 7.0 | 11.0 | 0.00 | 0.00 | 0.00 | 52 | 1012.2 |
| 20260830165530 | 75 | 248 | 7.0 | 11.0 | 0.00 | 0.00 | 0.00 | 52 | 1012.2 |
| 20260830165345 | 75 | 270 | 8.0 | 13.0 | 0.00 | 0.00 | 0.00 | 52 | 1012.2 |
| 20260830165227 | 75 | 225 | 8.0 | 13.0 | 0.00 | 0.00 | 0.00 | 51 | 1012.1 |
| 20260830165210 | 76 | 270 | 8.0 | 13.0 | 0.00 | 0.00 | 0.00 | 51 | 1012.1 |
| 20260830165020 | 76 | 202 | 7.0 | 14.0 | 0.00 | 0.00 | 0.00 | 51 | 1012.1 |
| 20260830164830 | 76 | 270 | 7.0 | 15.0 | 0.00 | 0.00 | 0.00 | 51 | 1012.1 |
| 20260830164639 | 76 | 248 | 6.0 | 15.0 | 0.00 | 0.00 | 0.00 | 51 | 1012.1 |
| 20260830164450 | 76 | 248 | 6.0 | 10.0 | 0.00 | 0.00 | 0.00 | 51 | 1012.0 |
| 20260830164315 | 76 | 225 | 5.0 | 10.0 | 0.00 | 0.00 | 0.00 | 50 | 1012.1 |
| 20260830164120 | 76 | 225 | 5.0 | 10.0 | 0.00 | 0.00 | 0.00 | 50 | 1012.1 |
| 20260830163930 | 76 | 248 | 5.0 | 12.0 | 0.00 | 0.00 | 0.00 | 50 | 1012.1 |
| 20260830163731 | 76 | 338 | 5.0 | 12.0 | 0.00 | 0.00 | 0.00 | 50 | 1012.0 |
| 20260830163543 | 76 | 202 | 5.0 | 6.0 | 0.00 | 0.00 | 0.00 | 50 | 1012.0 |
| 20260830163327 | 77 | 292 | 5.0 | 6.0 | 0.00 | 0.00 | 0.00 | 49 | 1012.0 |
| 20260830163150 | 77 | 225 | 5.0 | 6.0 | 0.00 | 0.00 | 0.00 | 49 | 1012.0 |
| 20260830162947 | 77 | 202 | 5.0 | 10.0 | 0.00 | 0.00 | 0.00 | 49 | 1012.0 |
| 20260830162750 | 77 | 180 | 5.0 | 10.0 | 0.00 | 0.00 | 0.00 | 49 | 1011.9 |
| 20260830162605 | 77 | 248 | 6.0 | 10.0 | 0.00 | 0.00 | 0.00 | 49 | 1011.9 |
| 20260830162418 | 77 | 270 | 6.0 | 7.0 | 0.00 | 0.00 | 0.00 | 49 | 1011.9 |
| 20260830162240 | 77 | 270 | 6.0 | 9.0 | 0.00 | 0.00 | 0.00 | 49 | 1011.8 |
| 20260830162100 | 77 | 292 | 7.0 | 9.0 | 0.00 | 0.00 | 0.00 | 49 | 1011.8 |
| 20260830161915 | 77 | 248 | 7.0 | 10.0 | 0.00 | 0.00 | 0.00 | 49 | 1011.9 |
| 20260830161720 | 77 | 248 | 8.0 | 11.0 | 0.00 | 0.00 | 0.00 | 49 | 1011.9 |
| 20260830161618 | 78 | 270 | 8.0 | 11.0 | 0.00 | 0.00 | 0.00 | 49 | 1011.9 |
| 20260830161543 | 78 | 225 | 8.0 | 11.0 | 0.00 | 0.00 | 0.00 | 49 | 1011.8 |
| 20260830161355 | 78 | 248 | 8.0 | 11.0 | 0.00 | 0.00 | 0.00 | 49 | 1011.7 |
| 20260830161200 | 78 | 315 | 8.0 | 12.0 | 0.00 | 0.00 | 0.00 | 49 | 1011.9 |
| 20260830161010 | 79 | 270 | 7.0 | 13.0 | 0.00 | 0.00 | 0.00 | 48 | 1011.8 |
| 20260830160810 | 79 | 248 | 7.0 | 13.0 | 0.00 | 0.00 | 0.00 | 47 | 1011.7 |
| 20260830160615 | 79 | 248 | 7.0 | 13.0 | 0.00 | 0.00 | 0.00 | 47 | 1011.7 |
| 20260830160435 | 79 | 202 | 7.0 | 10.0 | 0.00 | 0.00 | 0.00 | 45 | 1011.7 |
| 20260830160255 | 79 | 202 | 7.0 | 11.0 | 0.00 | 0.00 | 0.00 | 46 | 1011.7 |
| 20260830160056 | 78 | 248 | 7.0 | 16.0 | 0.00 | 0.00 | 0.00 | 45 | 1011.7 |
| 20260830155913 | 78 | 292 | 7.0 | 16.0 | 0.00 | 0.00 | 0.00 | 46 | 1011.6 |
| 20260830155838 | 78 | 248 | 8.0 | 16.0 | 0.00 | 0.00 | 0.00 | 46 | 1011.7 |
| 20260830155715 | 78 | 202 | 8.0 | 16.0 | 0.00 | 0.00 | 0.00 | 45 | 1011.7 |
| 20260830155520 | 78 | 292 | 7.0 | 10.0 | 0.00 | 0.00 | 0.00 | 46 | 1011.7 |
| 20260830155325 | 78 | 292 | 7.0 | 10.0 | 0.00 | 0.00 | 0.00 | 46 | 1011.7 |
| 20260830155145 | 78 | 270 | 8.0 | 10.0 | 0.00 | 0.00 | 0.00 | 46 | 1011.7 |
| 20260830155005 | 79 | 270 | 8.0 | 15.0 | 0.00 | 0.00 | 0.00 | 46 | 1011.7 |
| 20260830154823 | 79 | 292 | 8.0 | 12.0 | 0.00 | 0.00 | 0.00 | 46 | 1011.8 |
| 20260830154635 | 79 | 292 | 7.0 | 12.0 | 0.00 | 0.00 | 0.00 | 46 | 1011.7 |
| 20260830154445 | 79 | 338 | 8.0 | 12.0 | 0.00 | 0.00 | 0.00 | 46 | 1011.6 |
| 20260830154250 | 79 | 292 | 8.0 | 13.0 | 0.00 | 0.00 | 0.00 | 46 | 1011.7 |
| 20260830154100 | 79 | 292 | 8.0 | 13.0 | 0.00 | 0.00 | 0.00 | 45 | 1011.6 |
| 20260830154047 | 79 | 292 | 8.0 | 13.0 | 0.00 | 0.00 | 0.00 | 45 | 1011.6 |
| 20260830153917 | 79 | 270 | 8.0 | 13.0 | 0.00 | 0.00 | 0.00 | 45 | 1011.7 |
| 20260830153734 | 79 | 292 | 8.0 | 13.0 | 0.00 | 0.00 | 0.00 | 45 | 1011.6 |
| 20260830153558 | 79 | 225 | 8.0 | 13.0 | 0.00 | 0.00 | 0.00 | 45 | 1011.7 |
| 20260830153405 | 79 | 270 | 8.0 | 16.0 | 0.00 | 0.00 | 0.00 | 44 | 1011.6 |
| 20260830153216 | 79 | 248 | 8.0 | 16.0 | 0.00 | 0.00 | 0.00 | 44 | 1011.7 |
| 20260830153030 | 79 | 248 | 8.0 | 16.0 | 0.00 | 0.00 | 0.00 | 45 | 1011.6 |
| 20260830152835 | 79 | 270 | 8.0 | 15.0 | 0.00 | 0.00 | 0.00 | 45 | 1011.5 |
| 20260830152645 | 79 | 225 | 8.0 | 15.0 | 0.00 | 0.00 | 0.00 | 45 | 1011.6 |
| 20260830152534 | 79 | 225 | 8.0 | 15.0 | 0.00 | 0.00 | 0.00 | 45 | 1011.5 |
| 20260830152450 | 80 | 270 | 8.0 | 15.0 | 0.00 | 0.00 | 0.00 | 44 | 1011.5 |
| 20260830152311 | 80 | 270 | 8.0 | 13.0 | 0.00 | 0.00 | 0.00 | 44 | 1011.5 |
| 20260830152135 | 80 | 270 | 8.0 | 13.0 | 0.00 | 0.00 | 0.00 | 44 | 1011.6 |
| 20260830151945 | 80 | 248 | 8.0 | 15.0 | 0.00 | 0.00 | 0.00 | 44 | 1011.6 |
| 20260830151805 | 80 | 270 | 8.0 | 15.0 | 0.00 | 0.00 | 0.00 | 44 | 1011.6 |
| 20260830151620 | 80 | 292 | 8.0 | 15.0 | 0.00 | 0.00 | 0.00 | 44 | 1011.6 |
| 20260830151425 | 80 | 248 | 8.0 | 15.0 | 0.00 | 0.00 | 0.00 | 44 | 1011.6 |
| 20260830151235 | 80 | 270 | 8.0 | 15.0 | 0.00 | 0.00 | 0.00 | 44 | 1011.5 |
| 20260830151035 | 80 | 225 | 8.0 | 16.0 | 0.00 | 0.00 | 0.00 | 44 | 1011.5 |
| 20260830150932 | 80 | 248 | 9.0 | 16.0 | 0.00 | 0.00 | 0.00 | 44 | 1011.6 |
| 20260830150850 | 80 | 225 | 8.0 | 16.0 | 0.00 | 0.00 | 0.00 | 44 | 1011.6 |
| 20260830150705 | 79 | 225 | 8.0 | 16.0 | 0.00 | 0.00 | 0.00 | 43 | 1011.4 |
| 20260830150522 | 79 | 292 | 8.0 | 15.0 | 0.00 | 0.00 | 0.00 | 44 | 1011.5 |
| 20260830150343 | 80 | 270 | 8.0 | 15.0 | 0.00 | 0.00 | 0.00 | 44 | 1011.6 |
| 20260830150146 | 80 | 270 | 8.0 | 15.0 | 0.00 | 0.00 | 0.00 | 44 | 1011.5 |
| 20260830150005 | 80 | 270 | 7.0 | 11.0 | 0.00 | 0.00 | 0.00 | 44 | 1011.3 |
| 20260830145825 | 80 | 270 | 7.0 | 11.0 | 0.00 | 0.00 | 0.00 | 44 | 1011.5 |
| 20260830145633 | 80 | 292 | 7.0 | 11.0 | 0.00 | 0.00 | 0.00 | 45 | 1011.5 |
| 20260830145445 | 81 | 248 | 7.0 | 11.0 | 0.00 | 0.00 | 0.00 | 45 | 1011.5 |
| 20260830145337 | 81 | 270 | 7.0 | 10.0 | 0.00 | 0.00 | 0.00 | 44 | 1011.5 |
| 20260830145257 | 81 | 270 | 7.0 | 11.0 | 0.00 | 0.00 | 0.00 | 45 | 1011.5 |
| 20260830145100 | 81 | 248 | 7.0 | 11.0 | 0.00 | 0.00 | 0.00 | 44 | 1011.5 |
| 20260830144905 | 81 | 292 | 8.0 | 11.0 | 0.00 | 0.00 | 0.00 | 43 | 1011.5 |
| 20260830144705 | 81 | 292 | 8.0 | 11.0 | 0.00 | 0.00 | 0.00 | 42 | 1011.5 |
| 20260830144515 | 81 | 248 | 8.0 | 17.0 | 0.00 | 0.00 | 0.00 | 42 | 1011.4 |
| 20260830144330 | 80 | 225 | 8.0 | 17.0 | 0.00 | 0.00 | 0.00 | 43 | 1011.4 |
| 20260830144145 | 80 | 225 | 8.0 | 13.0 | 0.00 | 0.00 | 0.00 | 42 | 1011.3 |
| 20260830143950 | 80 | 225 | 8.0 | 14.0 | 0.00 | 0.00 | 0.00 | 42 | 1011.4 |
| 20260830143801 | 80 | 225 | 9.0 | 15.0 | 0.00 | 0.00 | 0.00 | 43 | 1011.4 |
| 20260830143718 | 80 | 248 | 9.0 | 15.0 | 0.00 | 0.00 | 0.00 | 43 | 1011.4 |
| 20260830143615 | 80 | 248 | 9.0 | 15.0 | 0.00 | 0.00 | 0.00 | 43 | 1011.4 |
| 20260830143432 | 80 | 270 | 9.0 | 15.0 | 0.00 | 0.00 | 0.00 | 42 | 1011.3 |
| 20260830143214 | 80 | 248 | 9.0 | 15.0 | 0.00 | 0.00 | 0.00 | 42 | 1011.4 |
| 20260830143030 | 80 | 202 | 9.0 | 15.0 | 0.00 | 0.00 | 0.00 | 42 | 1011.4 |
| 20260830142850 | 80 | 292 | 9.0 | 15.0 | 0.00 | 0.00 | 0.00 | 42 | 1011.4 |
| 20260830142704 | 80 | 225 | 9.0 | 15.0 | 0.00 | 0.00 | 0.00 | 42 | 1011.4 |
| 20260830142516 | 80 | 202 | 9.0 | 15.0 | 0.00 | 0.00 | 0.00 | 42 | 1011.5 |
| 20260830142323 | 80 | 292 | 8.0 | 15.0 | 0.00 | 0.00 | 0.00 | 42 | 1011.4 |
| 20260830142140 | 80 | 202 | 8.0 | 13.0 | 0.00 | 0.00 | 0.00 | 42 | 1011.4 |
| 20260830141951 | 80 | 248 | 9.0 | 13.0 | 0.00 | 0.00 | 0.00 | 42 | 1011.3 |
| 20260830141759 | 80 | 270 | 8.0 | 12.0 | 0.00 | 0.00 | 0.00 | 42 | 1011.3 |
| 20260830141610 | 80 | 270 | 9.0 | 15.0 | 0.00 | 0.00 | 0.00 | 42 | 1011.2 |
| 20260830141411 | 80 | 292 | 9.0 | 15.0 | 0.00 | 0.00 | 0.00 | 42 | 1011.2 |
| 20260830141231 | 80 | 225 | 9.0 | 15.0 | 0.00 | 0.00 | 0.00 | 43 | 1011.2 |
| 20260830141040 | 80 | 248 | 9.0 | 17.0 | 0.00 | 0.00 | 0.00 | 42 | 1011.3 |
| 20260830140845 | 80 | 270 | 10.0 | 17.0 | 0.00 | 0.00 | 0.00 | 43 | 1011.2 |
| 20260830140655 | 80 | 292 | 9.0 | 17.0 | 0.00 | 0.00 | 0.00 | 43 | 1011.3 |
| 20260830140515 | 80 | 248 | 9.0 | 17.0 | 0.00 | 0.00 | 0.00 | 43 | 1011.2 |
| 20260830140315 | 80 | 292 | 9.0 | 17.0 | 0.00 | 0.00 | 0.00 | 43 | 1011.2 |
| 20260830140252 | 80 | 225 | 9.0 | 17.0 | 0.00 | 0.00 | 0.00 | 43 | 1011.2 |
| 20260830140120 | 80 | 270 | 10.0 | 16.0 | 0.00 | 0.00 | 0.00 | 43 | 1011.2 |
| 20260830135940 | 80 | 225 | 10.0 | 16.0 | 0.00 | 0.00 | 0.00 | 43 | 1011.2 |
| 20260830135745 | 80 | 225 | 11.0 | 16.0 | 0.00 | 0.00 | 0.00 | 43 | 1011.2 |
| 20260830135605 | 80 | 248 | 10.0 | 16.0 | 0.00 | 0.00 | 0.00 | 44 | 1011.2 |
| 20260830135420 | 80 | 248 | 11.0 | 16.0 | 0.00 | 0.00 | 0.00 | 43 | 1011.1 |
| 20260830135239 | 80 | 248 | 11.0 | 16.0 | 0.00 | 0.00 | 0.00 | 43 | 1011.2 |
| 20260830135040 | 80 | 202 | 11.0 | 20.0 | 0.00 | 0.00 | 0.00 | 44 | 1011.1 |
| 20260830134837 | 80 | 270 | 10.0 | 20.0 | 0.00 | 0.00 | 0.00 | 44 | 1011.3 |
| 20260830134734 | 80 | 225 | 9.0 | 20.0 | 0.00 | 0.00 | 0.00 | 44 | 1011.2 |
| 20260830134655 | 80 | 248 | 9.0 | 16.0 | 0.00 | 0.00 | 0.00 | 44 | 1011.2 |
| 20260830134502 | 80 | 225 | 8.0 | 16.0 | 0.00 | 0.00 | 0.00 | 44 | 1011.3 |
| 20260830134305 | 80 | 248 | 8.0 | 13.0 | 0.00 | 0.00 | 0.00 | 45 | 1011.3 |
| 20260830134120 | 80 | 270 | 8.0 | 13.0 | 0.00 | 0.00 | 0.00 | 45 | 1011.3 |
| 20260830133920 | 81 | 202 | 8.0 | 11.0 | 0.00 | 0.00 | 0.00 | 45 | 1011.2 |
| 20260830133720 | 81 | 292 | 8.0 | 11.0 | 0.00 | 0.00 | 0.00 | 45 | 1011.1 |
| 20260830133538 | 80 | 248 | 8.0 | 12.0 | 0.00 | 0.00 | 0.00 | 44 | 1011.1 |
| 20260830133400 | 80 | 248 | 8.0 | 12.0 | 0.00 | 0.00 | 0.00 | 45 | 1011.1 |
| 20260830133222 | 80 | 270 | 7.0 | 12.0 | 0.00 | 0.00 | 0.00 | 44 | 1011.2 |
| 20260830133031 | 80 | 292 | 7.0 | 10.0 | 0.00 | 0.00 | 0.00 | 45 | 1011.0 |
| 20260830132840 | 80 | 248 | 7.0 | 10.0 | 0.00 | 0.00 | 0.00 | 45 | 1010.9 |
| 20260830132707 | 80 | 248 | 7.0 | 10.0 | 0.00 | 0.00 | 0.00 | 44 | 1011.0 |
| 20260830132510 | 80 | 248 | 7.0 | 10.0 | 0.00 | 0.00 | 0.00 | 45 | 1010.9 |
| 20260830132311 | 79 | 315 | 7.0 | 10.0 | 0.00 | 0.00 | 0.00 | 46 | 1010.9 |
| 20260830132126 | 79 | 225 | 8.0 | 12.0 | 0.00 | 0.00 | 0.00 | 47 | 1010.8 |
| 20260830131940 | 79 | 248 | 8.0 | 14.0 | 0.00 | 0.00 | 0.00 | 47 | 1010.9 |
| 20260830131740 | 79 | 248 | 8.0 | 14.0 | 0.00 | 0.00 | 0.00 | 47 | 1010.8 |
| 20260830131555 | 79 | 270 | 8.0 | 14.0 | 0.00 | 0.00 | 0.00 | 47 | 1010.8 |
| 20260830131405 | 79 | 248 | 7.0 | 14.0 | 0.00 | 0.00 | 0.00 | 47 | 1010.8 |
| 20260830131222 | 79 | 270 | 7.0 | 10.0 | 0.00 | 0.00 | 0.00 | 47 | 1010.8 |
| 20260830131148 | 79 | 202 | 7.0 | 10.0 | 0.00 | 0.00 | 0.00 | 47 | 1010.8 |
| 20260830131030 | 79 | 292 | 7.0 | 10.0 | 0.00 | 0.00 | 0.00 | 48 | 1010.8 |
| 20260830130845 | 79 | 270 | 7.0 | 10.0 | 0.00 | 0.00 | 0.00 | 49 | 1010.9 |
| 20260830130650 | 79 | 270 | 7.0 | 11.0 | 0.00 | 0.00 | 0.00 | 50 | 1010.9 |
| 20260830130515 | 79 | 225 | 8.0 | 13.0 | 0.00 | 0.00 | 0.00 | 50 | 1010.9 |
| 20260830130330 | 79 | 270 | 9.0 | 13.0 | 0.00 | 0.00 | 0.00 | 50 | 1010.9 |
| 20260830130140 | 80 | 248 | 9.0 | 13.0 | 0.00 | 0.00 | 0.00 | 50 | 1010.8 |
| 20260830125940 | 80 | 248 | 9.0 | 13.0 | 0.00 | 0.00 | 0.00 | 49 | 1010.8 |
| 20260830125800 | 80 | 248 | 9.0 | 13.0 | 0.00 | 0.00 | 0.00 | 49 | 1010.8 |
| 20260830125610 | 80 | 225 | 9.0 | 13.0 | 0.00 | 0.00 | 0.00 | 48 | 1010.7 |
| 20260830125532 | 80 | 270 | 9.0 | 13.0 | 0.00 | 0.00 | 0.00 | 48 | 1010.8 |
| 20260830125420 | 80 | 248 | 9.0 | 13.0 | 0.00 | 0.00 | 0.00 | 47 | 1010.7 |
| 20260830125235 | 80 | 292 | 9.0 | 15.0 | 0.00 | 0.00 | 0.00 | 47 | 1010.8 |
| 20260830125041 | 80 | 225 | 9.0 | 15.0 | 0.00 | 0.00 | 0.00 | 47 | 1010.7 |
| 20260830124907 | 80 | 202 | 9.0 | 15.0 | 0.00 | 0.00 | 0.00 | 46 | 1010.7 |
| 20260830124720 | 80 | 202 | 9.0 | 12.0 | 0.00 | 0.00 | 0.00 | 47 | 1010.7 |
| 20260830124535 | 80 | 225 | 9.0 | 16.0 | 0.00 | 0.00 | 0.00 | 48 | 1010.7 |
| 20260830124356 | 80 | 248 | 9.0 | 16.0 | 0.00 | 0.00 | 0.00 | 48 | 1010.6 |
| 20260830124215 | 80 | 225 | 9.0 | 16.0 | 0.00 | 0.00 | 0.00 | 49 | 1010.8 |
| 20260830124036 | 80 | 225 | 8.0 | 16.0 | 0.00 | 0.00 | 0.00 | 48 | 1010.8 |
| 20260830123850 | 80 | 248 | 8.0 | 12.0 | 0.00 | 0.00 | 0.00 | 48 | 1010.7 |
| 20260830123838 | 80 | 270 | 8.0 | 12.0 | 0.00 | 0.00 | 0.00 | 48 | 1010.7 |
| 20260830123703 | 79 | 248 | 8.0 | 11.0 | 0.00 | 0.00 | 0.00 | 49 | 1010.7 |
| 20260830123520 | 79 | 270 | 8.0 | 11.0 | 0.00 | 0.00 | 0.00 | 50 | 1010.7 |
| 20260830123334 | 79 | 202 | 8.0 | 11.0 | 0.00 | 0.00 | 0.00 | 50 | 1010.7 |
| 20260830123135 | 79 | 225 | 8.0 | 11.0 | 0.00 | 0.00 | 0.00 | 52 | 1010.8 |
| 20260830122955 | 79 | 225 | 8.0 | 13.0 | 0.00 | 0.00 | 0.00 | 51 | 1010.7 |
| 20260830122800 | 79 | 248 | 8.0 | 13.0 | 0.00 | 0.00 | 0.00 | 51 | 1010.7 |
| 20260830122601 | 79 | 248 | 8.0 | 13.0 | 0.00 | 0.00 | 0.00 | 52 | 1010.7 |
| 20260830122412 | 79 | 248 | 8.0 | 11.0 | 0.00 | 0.00 | 0.00 | 51 | 1010.7 |
| 20260830122214 | 78 | 225 | 8.0 | 11.0 | 0.00 | 0.00 | 0.00 | 51 | 1010.7 |
| 20260830122029 | 78 | 225 | 8.0 | 14.0 | 0.00 | 0.00 | 0.00 | 51 | 1010.8 |
| 20260830121952 | 78 | 225 | 8.0 | 14.0 | 0.00 | 0.00 | 0.00 | 51 | 1010.7 |
| 20260830121835 | 78 | 225 | 8.0 | 14.0 | 0.00 | 0.00 | 0.00 | 52 | 1010.8 |
| 20260830121640 | 78 | 248 | 8.0 | 14.0 | 0.00 | 0.00 | 0.00 | 53 | 1010.8 |
| 20260830121455 | 78 | 248 | 8.0 | 13.0 | 0.00 | 0.00 | 0.00 | 53 | 1010.8 |
| 20260830121305 | 79 | 225 | 8.0 | 13.0 | 0.00 | 0.00 | 0.00 | 52 | 1010.7 |
| 20260830121105 | 78 | 225 | 8.0 | 13.0 | 0.00 | 0.00 | 0.00 | 52 | 1010.6 |
| 20260830120920 | 78 | 248 | 8.0 | 17.0 | 0.00 | 0.00 | 0.00 | 52 | 1010.7 |
| 20260830120730 | 78 | 225 | 8.0 | 17.0 | 0.00 | 0.00 | 0.00 | 52 | 1010.6 |
| 20260830120540 | 78 | 248 | 8.0 | 17.0 | 0.00 | 0.00 | 0.00 | 52 | 1010.7 |
| 20260830120345 | 78 | 248 | 8.0 | 17.0 | 0.00 | 0.00 | 0.00 | 52 | 1010.7 |
| 20260830120307 | 78 | 248 | 8.0 | 17.0 | 0.00 | 0.00 | 0.00 | 52 | 1010.7 |
| 20260830120152 | 78 | 225 | 7.0 | 10.0 | 0.00 | 0.00 | 0.00 | 54 | 1010.6 |
| 20260830120005 | 77 | 225 | 8.0 | 13.0 | 0.00 | 0.00 | 0.00 | 53 | 1010.6 |
| 20260830115820 | 77 | 270 | 8.0 | 13.0 | 0.00 | 0.00 | 0.00 | 55 | 1010.6 |
| 20260830115620 | 77 | 202 | 8.0 | 13.0 | 0.00 | 0.00 | 0.00 | 55 | 1010.7 |